GFSSW_sfc_30mbdewp_069.txt.gz
Dewpoint
52 52 53 54 55 55 56 58 58 58 57 57 56 56 56 56 54 44 38 41 47 43 39 35 32 27 26 25 25 22 16 11 12 12 19 29 24 31 34 38 43 54 55 55 58
50 49 50 51 52 54 55 55 57 58 57 57 56 56 56 55 51 41 41 41 40 41 32 34 33 29 28 23 22 20 14 11 12 12 12 19 25 24 34 38 41 53 57 58 58
49 48 49 49 50 51 54 54 54 56 57 57 56 56 56 55 44 37 43 42 39 39 29 30 30 28 21 21 20 19 14 12 12 10 15 15 16 42 35 42 48 44 55 57 56
47 47 48 48 49 51 53 53 53 54 56 57 56 56 56 52 22 39 45 47 43 36 28 28 30 24 20 18 18 16 16 14 12 11 13 12 24 46 45 46 50 50 56 58 56
47 45 45 47 48 50 51 52 52 52 53 55 56 56 53 45 42 43 48 47 39 30 26 25 27 26 20 18 16 16 18 14 14 12 15 14 35 43 44 44 45 54 56 56 56
47 46 46 44 46 48 50 50 51 52 52 54 57 56 51 39 41 37 39 44 33 31 29 29 29 26 21 17 16 20 20 19 17 16 16 16 35 38 45 45 44 54 54 55 56
49 48 44 44 45 45 47 49 49 50 52 53 56 55 48 40 41 39 36 34 41 37 31 30 29 27 22 17 24 24 23 21 19 18 15 17 26 38 45 45 47 53 53 55 55
49 48 46 43 43 44 46 48 49 49 50 53 55 52 44 43 43 42 41 36 34 34 35 32 31 27 20 25 24 24 22 18 19 19 18 23 24 39 47 49 51 52 52 53 54
49 48 48 47 43 43 44 47 48 48 49 52 52 50 43 42 40 39 35 32 32 29 32 31 28 25 24 21 23 23 20 18 16 17 20 24 32 38 42 45 46 51 51 51 54
48 49 48 48 47 43 43 46 45 47 47 51 50 43 43 31 32 31 35 32 28 27 31 29 26 23 23 23 20 21 21 19 16 22 24 27 30 37 40 41 44 49 49 50 53
48 48 50 48 48 46 45 42 41 45 46 44 43 38 27 32 34 27 30 27 27 26 28 28 24 22 23 23 23 22 21 19 18 22 23 24 28 34 38 41 44 44 49 50 51
48 48 49 49 48 46 46 40 39 39 37 45 45 43 38 38 34 31 26 26 25 21 29 28 24 24 24 24 23 23 21 19 22 23 21 18 18 36 40 37 40 46 47 48 51
48 48 48 48 48 46 43 40 40 40 37 36 36 38 41 38 36 32 29 25 23 21 27 27 25 25 24 23 22 21 19 19 21 23 24 21 19 33 34 36 39 43 46 45 51
47 48 47 48 43 42 40 41 42 40 35 27 25 26 27 22 30 32 30 26 21 19 25 26 27 25 25 23 22 19 20 20 23 23 18 22 18 23 26 31 34 40 44 44 49
48 48 47 47 43 41 41 43 44 44 9 7 11 24 22 20 21 23 29 27 20 19 24 24 25 25 24 23 23 20 25 23 25 23 20 20 24 28 30 26 29 34 42 43 46
48 47 48 46 46 44 44 44 45 34 17 10 26 26 24 19 20 22 23 25 24 19 21 22 23 23 23 23 23 21 22 24 24 23 19 20 26 27 28 23 27 31 39 41 44
48 48 47 43 40 44 45 42 33 23 12 1 26 26 26 21 20 21 20 20 22 19 17 19 21 21 22 20 23 21 20 19 20 21 19 29 28 25 27 27 26 28 37 37 41
48 48 47 44 43 44 44 36 25 23 17 13 17 25 24 24 22 21 18 19 24 22 19 18 18 20 21 20 20 21 21 20 19 21 28 31 24 22 27 27 25 28 37 40 38
48 46 45 44 43 45 40 28 22 23 16 17 13 16 24 23 25 22 21 21 24 25 18 17 18 20 19 22 21 23 21 25 30 33 31 32 28 24 25 23 21 22 33 38 40
46 44 41 44 43 42 35 28 26 24 21 17 15 16 23 26 24 24 24 25 23 24 25 21 18 21 21 22 22 22 26 25 32 26 28 27 28 20 25 26 20 19 22 30 35
45 38 41 43 44 36 28 28 29 28 26 21 19 20 19 22 26 23 23 24 23 21 22 21 21 22 23 21 20 21 20 25 31 30 24 21 24 29 26 25 18 23 25 29 31
42 32 41 42 34 32 28 28 29 25 26 24 23 21 22 22 21 22 22 22 24 24 20 22 27 24 23 23 23 22 20 25 27 25 27 27 24 28 28 23 24 23 25 27 33
37 36 41 40 28 28 30 28 29 27 27 23 21 19 20 22 21 28 24 26 25 24 24 26 28 26 23 23 21 20 22 22 28 30 27 24 24 27 28 24 24 22 25 27 28
36 30 37 38 33 27 26 26 28 29 30 27 24 22 22 24 24 29 32 28 27 26 29 29 27 26 22 26 25 21 21 22 24 23 24 27 25 25 27 23 23 22 22 27 26
35 32 34 30 31 31 27 26 25 26 27 27 24 25 24 23 27 28 35 37 29 30 28 28 25 26 26 27 27 25 22 20 20 26 25 26 26 26 25 24 23 27 25 25 28
32 34 33 29 33 32 30 29 27 26 24 25 25 24 24 25 27 33 38 35 34 26 26 29 25 26 24 26 24 25 24 20 20 19 20 26 26 27 24 22 25 27 27 27 29
38 36 32 29 31 31 29 29 30 26 25 23 23 23 22 25 37 40 40 40 37 32 26 26 25 25 24 26 24 24 24 26 25 20 19 16 19 21 22 18 20 27 28 32 36

GFSSW_sfc_30mbdewp_072.txt.gz
Dewpoint
51 50 50 51 52 52 54 55 54 55 57 57 58 57 56 56 55 49 38 37 46 47 43 34 33 31 27 25 25 22 19 17 17 14 11 18 25 37 42 42 51 55 55 56 57
49 48 48 49 51 52 52 54 54 53 54 56 57 57 56 56 52 42 43 43 49 47 27 31 34 28 27 26 24 20 17 17 18 14 12 17 28 31 41 46 47 52 56 57 57
47 46 47 48 49 50 51 52 52 53 53 54 55 57 55 55 46 33 46 46 49 42 30 30 31 28 27 26 24 21 19 20 19 17 13 14 35 42 41 41 48 46 53 56 56
48 47 45 46 48 49 50 50 51 50 51 53 54 56 55 53 9 38 46 45 46 36 26 25 26 28 22 20 20 17 18 17 17 17 13 13 42 40 43 43 49 50 54 55 56
49 48 46 46 45 46 48 49 50 50 49 50 53 54 53 46 43 40 49 48 42 31 23 19 26 27 24 21 19 17 16 18 19 19 15 22 37 42 43 49 52 55 56 56 56
49 48 47 45 44 44 45 47 49 49 50 49 52 55 49 34 36 40 45 46 36 29 27 24 25 28 26 23 20 18 22 24 24 21 18 21 39 40 42 46 51 55 55 56 56
49 49 47 46 44 44 44 46 47 48 49 49 49 52 46 36 40 40 39 36 40 33 29 29 29 29 26 24 24 25 22 23 22 21 20 27 31 36 42 46 52 52 54 54 56
49 49 49 47 47 43 44 45 46 47 48 49 50 50 42 44 44 43 44 43 40 36 36 33 32 29 27 26 22 22 23 19 20 20 20 19 17 35 44 44 51 52 52 53 55
48 48 49 49 48 48 44 44 45 46 47 49 49 48 39 45 43 44 43 35 34 35 33 35 33 30 27 22 19 23 19 19 21 24 21 20 22 37 47 49 50 51 52 53 54
49 48 49 50 49 47 47 46 44 46 47 46 49 43 42 26 33 34 37 36 31 30 30 30 28 25 24 22 15 18 20 22 21 22 18 26 28 37 44 46 50 51 52 52 53
49 49 48 49 49 47 47 40 34 43 45 42 43 40 32 34 37 32 33 33 31 27 25 29 26 24 22 23 22 22 22 21 22 23 24 24 29 35 40 43 45 48 49 51 53
47 49 48 47 48 49 45 39 38 39 33 35 40 43 44 42 39 38 31 28 26 24 27 28 25 26 25 24 23 22 22 22 23 23 23 20 19 35 40 41 44 47 48 49 52
48 48 49 48 47 46 43 40 40 40 36 34 36 38 40 42 41 37 33 27 24 24 24 26 27 26 25 23 22 22 22 22 21 21 24 22 21 32 37 40 43 45 44 49 51
49 48 48 47 41 42 41 42 43 43 26 23 30 28 32 35 33 33 27 27 24 22 23 26 28 27 25 24 23 21 23 22 20 23 20 22 18 30 33 35 39 41 44 46 50
48 48 48 46 40 40 42 44 43 42 -18 2 19 29 31 28 23 32 30 28 24 21 22 22 27 27 26 25 25 23 25 23 24 23 22 22 21 23 28 28 32 39 43 46 50
48 48 48 47 45 43 44 43 45 31 -1 7 17 23 27 26 20 24 31 28 27 22 21 21 25 27 26 26 25 26 24 24 25 23 20 22 23 22 24 27 28 38 42 46 49
49 48 48 45 39 42 44 43 29 22 11 5 19 26 21 21 19 20 23 23 23 20 19 18 19 24 23 22 24 25 21 18 18 19 19 29 28 25 24 27 28 37 42 45 49
49 49 48 47 44 42 42 36 23 20 19 15 16 16 25 22 18 19 20 16 22 23 20 17 16 19 22 21 20 22 21 19 16 18 21 31 23 25 27 29 29 33 42 45 47
49 48 46 46 44 43 37 26 23 21 23 21 17 13 13 25 23 20 21 20 18 23 20 17 17 22 21 22 22 21 20 24 27 34 30 28 31 28 26 26 26 27 38 42 44
46 45 43 44 45 41 33 26 25 23 21 23 21 17 13 25 25 23 22 22 21 22 26 22 17 19 21 23 22 22 26 25 30 23 23 26 28 24 24 23 22 28 37 38 42
45 39 43 44 44 36 26 27 27 27 27 23 20 21 21 22 23 23 26 25 22 23 26 25 22 20 22 20 21 22 23 27 31 31 26 22 22 28 26 23 21 21 31 36 39
42 33 43 43 33 32 26 30 29 27 29 27 26 23 23 22 23 26 23 24 28 22 24 26 24 20 20 25 26 24 21 23 26 30 31 28 23 28 27 24 25 25 29 32 35
38 35 43 40 28 28 28 26 29 28 26 26 25 24 21 21 22 25 23 31 31 26 22 24 23 20 18 21 24 22 23 23 27 30 28 26 25 28 28 28 25 24 27 30 31
35 29 36 38 33 28 29 26 25 27 27 27 28 27 24 22 21 25 26 32 38 32 28 24 26 19 16 21 26 24 22 22 25 24 25 28 28 28 26 26 24 24 25 28 32
34 31 34 30 31 30 28 27 25 27 28 29 27 28 28 23 23 26 36 36 37 34 33 27 23 23 24 27 27 26 25 25 22 23 23 26 27 27 26 26 25 24 24 26 28
30 32 35 30 33 31 30 28 25 26 25 27 27 27 28 24 23 24 34 37 37 37 34 31 25 28 27 28 27 26 28 27 27 22 26 27 28 29 28 28 28 26 25 25 27
40 38 33 32 33 31 28 27 27 27 26 27 26 26 24 25 27 35 39 39 39 38 35 30 28 26 24 27 27 26 29 31 29 28 24 21 25 26 24 27 26 25 26 25 29

GFSSW_sfc_30mbdewp_075.txt.gz
Dewpoint
49 49 49 49 50 50 50 51 52 51 52 53 54 55 56 56 55 50 33 34 45 49 43 34 33 31 27 24 25 22 19 18 18 16 15 15 20 39 44 44 51 53 54 55 56
49 46 46 47 49 50 50 50 51 50 50 51 52 54 56 56 52 42 38 43 47 48 30 32 31 26 25 26 25 22 19 18 19 18 18 18 23 35 40 42 44 51 56 56 56
50 48 47 46 47 48 49 49 50 49 49 49 51 53 54 55 43 22 47 47 51 46 30 32 31 29 28 27 24 21 19 20 20 19 19 18 23 41 40 39 41 41 50 55 56
48 48 48 46 47 47 46 47 48 48 48 49 49 52 53 53 -6 36 47 48 53 44 27 24 25 26 26 23 21 19 19 18 18 17 18 17 31 38 41 36 49 47 53 55 54
49 49 48 48 45 45 45 46 47 48 48 48 49 51 52 43 37 42 49 48 41 32 25 22 24 27 25 23 21 18 18 18 18 21 23 31 33 38 39 48 52 53 54 54 54
48 49 49 48 48 45 45 46 46 47 48 48 48 50 48 29 34 39 40 47 37 29 26 22 20 27 26 25 22 20 19 22 24 23 23 27 37 42 39 49 47 54 54 54 54
49 49 49 49 48 47 47 46 45 46 47 47 47 48 43 30 38 41 42 37 36 34 28 28 24 27 28 25 26 23 21 21 20 22 21 30 30 34 38 45 46 54 55 55 55
49 49 48 48 49 49 48 47 48 47 46 47 47 47 39 42 44 43 43 42 42 41 35 34 32 28 28 27 25 22 21 17 19 20 21 21 19 21 42 44 46 53 54 54 55
49 50 48 48 49 49 48 48 47 48 47 47 47 46 34 42 42 44 44 38 33 36 36 34 34 31 30 25 22 22 14 17 17 22 22 20 19 25 43 42 45 52 52 53 54
48 49 50 49 48 48 48 47 45 47 46 46 48 40 37 22 33 37 43 39 27 31 31 31 30 28 27 25 17 17 19 20 19 22 22 22 21 30 42 44 46 51 52 52 54
48 48 49 50 48 47 48 41 29 38 39 34 39 35 33 37 40 36 35 35 30 29 26 29 26 25 26 26 22 21 22 21 21 22 23 22 23 29 38 45 46 49 51 51 53
48 48 48 49 47 47 46 39 37 38 34 36 35 36 40 42 39 34 36 31 28 25 26 26 25 26 26 25 24 22 21 20 22 23 23 22 21 27 37 39 42 45 49 51 53
49 49 48 48 47 44 43 39 41 41 36 35 33 28 26 35 36 32 35 29 26 26 25 24 25 27 26 25 23 23 21 20 20 23 23 23 21 27 35 40 41 43 48 49 52
48 48 48 47 41 42 40 43 43 43 25 14 29 28 30 32 33 34 33 27 26 23 25 25 25 26 26 24 24 20 21 23 23 22 19 22 18 21 29 35 39 41 44 47 51
47 47 47 46 38 40 42 41 40 41 -19 -1 20 30 34 26 24 32 32 28 25 23 23 22 23 23 24 26 25 22 22 23 23 23 23 22 21 21 28 31 33 37 40 44 50
48 48 47 46 45 42 44 41 44 28 -11 -3 16 29 30 30 24 30 31 27 25 23 23 22 26 26 24 25 27 26 25 25 26 24 21 22 22 21 23 26 29 31 37 42 48
47 47 46 46 40 43 42 42 30 21 18 6 18 19 23 25 26 20 28 24 20 17 21 21 20 22 26 26 27 26 23 20 18 19 19 25 27 25 25 26 28 28 34 40 46
47 47 47 46 42 42 39 34 23 19 16 18 18 17 15 22 20 19 23 22 23 22 20 19 18 20 21 23 22 23 24 21 17 17 18 30 24 24 28 30 30 30 34 39 45
47 47 46 47 45 43 35 25 20 22 22 22 22 17 11 23 25 22 19 20 19 23 18 19 19 21 20 22 22 21 21 23 25 33 28 25 27 29 27 26 28 29 37 41 45
45 44 44 46 45 42 31 20 23 25 25 21 20 21 17 20 25 26 25 23 20 17 24 23 17 20 21 21 22 21 27 23 28 20 21 24 27 24 24 24 24 28 33 41 45
44 38 44 47 45 36 24 24 25 26 26 25 21 20 22 22 25 28 25 25 25 22 19 22 24 20 20 20 20 23 23 28 27 26 19 21 22 29 28 27 22 26 32 40 44
42 33 45 45 32 32 28 24 26 28 29 26 27 26 25 23 22 28 27 26 26 35 26 23 24 21 22 24 25 23 23 28 23 28 29 25 24 29 29 29 24 22 32 39 42
37 35 45 41 28 28 29 29 25 26 26 26 27 27 24 21 20 25 27 29 31 35 27 27 24 21 21 22 24 24 24 23 28 32 28 25 25 29 29 29 29 25 27 34 39
33 29 36 39 36 29 28 29 26 26 28 30 27 27 28 24 23 22 25 30 38 36 39 36 25 22 19 20 21 23 24 25 24 24 27 28 25 27 28 28 28 27 26 29 34
33 31 34 29 31 30 29 27 27 25 26 25 25 27 26 26 23 22 23 29 31 36 39 31 24 24 23 21 25 26 25 26 25 24 22 24 28 28 29 28 28 26 26 25 30
30 32 36 32 33 32 30 28 27 26 25 25 26 27 27 24 25 21 25 28 33 37 37 36 27 26 22 23 24 25 26 28 27 28 25 26 27 30 30 29 29 28 26 24 25
39 37 36 32 33 30 28 28 29 28 27 25 28 28 27 27 28 28 27 35 38 37 36 36 32 28 24 27 28 26 27 26 28 30 29 25 27 28 28 28 28 27 27 27 25

GFSSW_sfc_30mbdewp_078.txt.gz
Dewpoint
49 49 47 46 48 48 49 49 50 49 49 49 49 50 52 54 53 51 34 27 43 49 41 39 33 31 27 24 25 23 20 19 18 17 15 16 19 37 44 45 48 53 54 54 55
51 50 48 48 48 48 49 49 49 49 48 48 49 50 52 53 51 46 43 44 49 50 31 26 25 26 22 24 25 22 20 19 20 19 18 19 19 20 37 41 41 49 54 55 56
47 48 48 49 47 47 48 47 47 48 48 48 49 50 51 53 41 16 52 51 51 45 29 32 32 29 27 27 23 21 19 20 20 20 20 18 19 33 36 33 38 39 52 54 55
46 46 47 47 48 48 46 46 47 47 47 47 47 48 50 52 -11 34 52 54 55 48 28 26 28 28 27 25 25 22 21 21 19 18 18 18 25 33 39 30 46 46 53 54 54
48 48 47 47 47 49 48 47 47 47 47 47 47 48 50 37 25 40 45 49 42 33 27 24 23 25 25 24 21 19 19 19 19 19 22 25 25 32 38 40 50 53 55 53 54
49 49 49 47 47 47 48 48 48 48 47 47 46 48 48 19 29 39 41 44 38 30 26 23 22 25 26 25 23 22 19 21 23 22 23 22 29 40 32 47 51 53 53 53 54
49 50 49 48 47 47 48 48 48 48 48 47 46 47 44 17 34 37 40 38 35 34 27 25 23 28 27 25 26 24 23 22 21 19 19 25 25 31 35 49 46 52 52 52 54
47 49 50 49 49 48 48 48 48 48 47 48 46 45 37 42 43 42 43 41 40 37 32 34 33 29 26 27 26 23 21 17 17 21 21 23 20 22 30 44 45 52 52 53 53
48 49 49 49 49 49 48 48 47 47 47 48 45 44 28 39 39 40 43 39 39 39 35 34 33 31 29 25 24 22 17 16 15 20 22 21 21 23 41 43 43 50 53 52 52
49 49 49 49 49 49 48 46 45 46 46 46 46 37 30 12 32 37 44 41 31 34 33 33 32 30 29 25 18 20 18 20 18 19 22 20 22 23 33 41 42 49 52 53 53
49 49 49 49 48 49 47 40 33 31 37 36 37 33 30 40 41 37 38 36 32 30 27 30 27 25 26 28 24 20 19 20 22 22 20 20 22 23 29 42 43 47 51 52 53
48 48 49 48 48 49 44 38 37 37 34 37 36 35 37 39 35 32 37 31 27 23 27 27 26 26 27 27 26 24 22 20 21 21 21 22 21 22 29 35 42 44 49 51 52
48 49 48 48 48 44 41 37 42 41 36 35 36 33 30 32 28 24 29 31 28 25 25 21 24 27 25 26 25 25 24 22 20 21 23 22 21 21 28 36 39 42 46 50 52
48 49 48 47 41 41 38 43 41 41 29 16 27 29 27 28 27 29 29 23 26 25 25 25 23 25 26 25 24 22 24 23 22 21 17 22 19 21 22 27 35 38 42 47 51
48 49 48 47 37 38 42 42 41 40 -12 4 23 29 31 19 23 31 32 27 12 22 24 23 23 23 24 25 25 23 22 22 21 20 21 22 21 21 25 23 25 29 37 44 50
48 48 47 46 44 42 42 42 44 24 -7 -1 22 30 30 29 27 32 30 28 26 24 24 23 25 25 23 26 26 26 24 24 25 25 22 23 22 21 22 24 25 28 32 40 47
48 48 46 46 39 44 43 41 29 18 15 10 18 20 18 26 27 24 28 25 19 19 19 22 21 22 27 22 26 26 23 20 20 21 21 23 22 22 23 25 26 26 28 34 45
47 47 46 46 42 42 39 30 22 20 20 18 21 21 13 19 23 24 24 23 22 22 13 12 13 21 22 26 25 26 24 21 18 18 19 28 22 23 27 29 30 30 30 35 44
47 45 45 46 42 42 33 23 18 23 22 21 19 16 14 23 25 26 22 22 22 22 15 17 15 20 21 22 23 23 24 24 25 31 25 24 26 27 26 26 26 27 30 33 43
44 43 42 47 45 41 31 17 22 25 26 23 18 23 20 20 23 27 25 26 22 22 24 22 17 21 21 21 21 22 27 23 26 20 21 23 25 20 21 21 25 25 30 35 42
43 37 42 47 46 37 26 23 20 21 24 25 24 22 23 22 23 28 26 26 27 29 31 23 23 21 21 20 19 22 20 27 25 24 18 18 20 27 24 28 29 27 27 34 40
40 31 44 46 34 32 28 27 23 26 28 25 27 26 25 24 22 24 27 28 31 35 33 27 21 19 20 23 23 21 21 24 22 25 27 23 20 27 28 29 29 25 24 33 38
36 36 45 42 29 28 31 28 27 25 26 27 26 27 27 22 20 23 26 30 34 35 35 37 29 17 18 20 24 23 24 26 29 31 26 21 22 29 28 28 28 27 26 25 37
33 29 36 40 36 31 28 27 29 26 24 29 28 28 27 26 25 24 24 23 28 29 37 38 36 26 17 17 19 20 22 24 25 22 24 26 26 26 27 27 27 29 28 26 31
34 30 34 29 32 31 29 27 27 25 25 26 26 28 27 24 25 23 22 22 28 34 37 38 32 30 27 22 19 24 24 25 24 24 21 23 25 28 27 26 26 28 28 26 28
31 31 36 32 31 32 30 28 27 26 25 24 23 24 26 26 24 20 23 25 25 35 36 38 32 32 26 25 23 21 23 24 26 27 27 26 25 27 30 30 30 29 29 26 25
38 36 36 31 31 31 29 28 29 27 28 25 26 25 26 27 27 27 27 26 27 26 32 36 33 32 24 26 25 23 25 24 26 28 28 26 28 29 28 29 29 29 29 28 27

GFSSW_sfc_30mbdewp_081.txt.gz
Dewpoint
50 51 49 49 49 48 48 49 49 48 48 48 48 48 49 51 51 50 37 26 45 49 46 39 34 32 27 25 26 24 22 19 19 19 17 17 19 29 44 41 47 51 52 54 56
47 47 48 48 50 49 48 48 48 48 47 47 48 49 50 51 49 42 44 48 49 50 36 32 29 28 25 23 24 23 21 19 21 20 18 20 19 19 31 39 40 49 54 54 56
45 45 46 47 48 49 50 48 47 47 48 48 48 48 50 51 35 13 54 54 50 50 30 31 28 25 22 26 24 22 19 22 20 20 20 19 19 25 32 27 32 37 49 53 54
47 47 47 46 46 47 49 49 49 48 48 47 47 47 49 51 -12 35 49 51 54 47 29 31 28 28 26 24 26 21 22 21 21 21 21 19 22 28 36 27 42 42 51 53 54
49 48 48 48 47 47 48 49 48 47 47 47 47 47 48 32 12 38 43 51 50 41 28 26 27 28 27 26 22 22 22 21 21 20 19 22 22 24 30 35 48 52 52 53 53
49 49 48 48 48 48 48 49 48 48 46 47 47 47 46 19 19 39 39 39 37 31 28 25 24 25 24 26 22 24 21 20 22 24 24 22 25 37 26 41 49 52 52 52 53
47 48 49 47 48 48 48 49 49 48 47 46 47 46 42 23 30 34 38 35 35 34 27 26 23 27 26 25 26 25 23 24 23 22 21 23 24 30 32 47 49 51 52 52 52
47 48 49 49 49 49 49 49 49 48 47 46 46 45 35 40 42 41 40 38 38 33 31 31 34 27 26 27 26 24 23 19 19 21 21 23 14 23 31 43 47 51 51 50 52
49 49 49 50 49 49 49 49 48 47 48 48 45 42 27 37 38 37 39 34 41 39 33 33 33 31 29 23 22 23 15 17 16 19 20 23 19 24 38 41 43 49 50 50 51
48 49 49 49 49 49 49 46 44 46 47 46 44 35 31 14 33 37 43 42 34 37 32 31 32 30 30 24 16 18 19 20 17 19 22 20 19 21 29 39 40 45 50 51 51
48 49 49 49 49 49 47 39 35 32 37 32 33 32 32 38 39 39 42 38 33 30 22 32 28 27 27 27 22 22 19 17 19 22 21 19 19 19 25 39 41 44 48 51 53
47 48 49 49 48 49 43 35 38 38 34 36 35 35 36 37 30 29 35 30 29 24 28 28 27 28 27 29 27 22 20 18 21 22 22 19 20 22 25 29 38 42 46 49 52
47 48 49 48 48 43 40 37 42 40 36 33 36 35 32 31 29 26 30 32 27 25 25 21 26 28 27 26 27 26 24 23 21 22 22 21 19 22 25 33 38 43 44 49 50
47 48 48 47 43 41 38 43 41 42 28 19 26 30 29 30 25 28 22 21 29 25 25 24 23 24 26 23 25 21 25 25 24 22 16 23 16 21 22 24 31 38 44 47 50
46 48 48 46 38 38 41 42 42 41 -6 7 27 29 29 23 20 31 28 22 10 23 26 24 24 22 22 25 26 22 25 24 24 22 21 15 17 21 25 24 24 27 39 44 48
46 47 46 45 44 42 42 43 44 27 -2 5 28 30 25 26 25 32 30 28 24 17 20 22 26 25 20 23 27 27 24 24 26 23 18 18 20 21 22 24 25 27 31 41 46
45 47 46 46 41 44 44 40 26 19 16 15 18 21 20 24 28 27 28 24 22 14 11 16 19 24 25 23 27 25 24 19 21 21 14 23 23 21 25 25 25 26 27 36 45
45 46 46 45 43 42 40 28 21 19 21 22 21 21 14 20 24 26 26 24 23 22 13 12 10 21 24 22 23 25 24 17 11 16 15 25 22 21 27 28 30 31 31 33 43
44 43 44 45 44 42 34 23 17 21 23 22 19 16 17 22 25 27 24 23 23 22 14 12 11 17 22 25 24 26 23 23 22 30 25 24 26 27 27 27 27 27 28 31 40
41 40 39 46 45 40 31 23 21 25 26 25 16 22 19 21 23 26 25 26 25 30 25 23 17 20 20 22 23 24 27 23 23 16 16 22 24 19 22 22 26 30 30 31 38
41 36 38 47 45 37 26 25 22 21 21 25 24 22 24 23 23 27 25 27 32 33 31 26 23 22 24 20 19 20 22 26 24 23 15 17 21 27 24 25 29 30 30 30 40
38 30 42 46 33 32 29 27 25 25 25 21 26 26 24 24 22 22 24 25 35 35 34 36 30 19 19 23 23 21 20 22 23 25 26 22 20 26 28 30 30 28 28 27 35
33 33 42 41 27 28 32 31 26 24 24 27 23 26 27 23 17 22 25 28 32 31 31 31 32 23 18 17 18 20 23 22 21 27 24 23 22 28 29 29 30 28 30 30 31
35 28 35 39 36 30 27 30 29 27 25 28 28 28 27 26 26 23 24 24 26 23 35 31 32 32 24 23 26 16 22 25 24 23 21 23 24 26 28 28 28 29 30 30 29
35 29 32 28 30 32 30 27 27 26 27 25 24 27 26 25 25 24 23 22 23 25 37 34 23 26 32 31 32 30 22 21 24 26 23 23 24 25 27 28 28 29 30 29 28
31 31 34 30 31 32 29 27 25 28 26 25 24 25 25 26 26 21 22 23 23 27 24 32 30 33 30 31 31 29 26 21 25 24 25 27 26 28 28 29 29 28 31 30 29
38 37 35 31 32 30 30 28 27 27 28 26 25 25 28 29 29 28 28 27 26 26 26 26 32 30 24 31 32 26 25 23 22 25 25 23 26 29 28 28 29 30 30 31 31

GFSSW_sfc_30mbdewp_084.txt.gz
Dewpoint
48 47 47 49 50 49 50 49 49 48 47 47 47 48 49 50 49 36 31 32 38 48 49 41 38 30 29 25 28 26 15 10 9 9 7 16 18 21 32 31 35 40 39 49 54
45 45 46 46 48 49 50 50 50 49 49 48 49 49 49 50 43 27 30 45 50 53 38 34 31 29 23 22 23 21 14 12 11 11 13 16 18 17 19 19 25 35 46 52 54
48 47 47 48 47 47 48 50 49 47 48 49 49 49 49 48 30 6 50 54 56 50 34 33 29 27 21 20 20 17 14 14 16 16 17 16 17 18 20 19 21 24 29 49 52
46 47 47 47 48 48 49 49 48 47 46 46 47 48 48 44 1 33 45 53 52 45 31 29 24 22 18 18 17 16 17 14 14 13 17 15 17 18 21 23 23 33 36 45 50
47 47 47 47 47 48 50 50 49 48 47 47 46 48 42 26 7 31 41 49 47 40 30 28 27 22 18 17 16 20 13 17 18 19 20 19 19 18 18 20 24 38 44 46 50
44 46 47 47 47 47 48 49 49 49 48 47 46 47 39 22 9 29 36 39 34 37 35 28 27 27 23 21 20 18 20 19 19 19 20 20 17 18 21 21 29 39 41 45 49
46 47 49 48 48 48 48 49 49 49 49 48 47 43 37 24 21 31 33 33 37 30 28 30 29 24 24 22 24 23 20 19 20 20 20 18 15 14 21 31 34 38 43 45 49
46 48 49 50 50 50 50 49 49 48 48 48 48 41 33 27 32 30 25 25 25 28 28 31 29 26 24 25 24 21 20 18 18 17 17 18 9 8 18 31 31 37 43 46 49
45 48 49 50 50 50 50 49 48 47 47 48 44 40 22 30 30 29 25 21 29 27 22 21 29 23 21 21 18 17 16 16 18 18 15 18 9 14 29 29 30 35 42 45 47
45 47 49 49 49 50 49 47 43 46 45 43 40 36 29 9 28 36 39 39 36 36 24 17 26 22 23 18 11 13 17 19 17 17 17 13 13 13 19 27 29 34 42 43 45
44 47 48 49 49 49 46 35 30 32 36 30 25 25 20 31 33 31 40 40 33 29 15 19 21 18 17 20 19 18 19 18 17 19 19 16 15 13 13 23 29 34 38 43 45
44 47 48 49 49 49 44 32 36 39 34 33 31 29 28 30 28 24 37 32 30 23 19 20 19 17 19 22 24 22 19 17 17 18 20 18 15 13 13 21 25 28 36 40 45
45 46 47 48 48 44 39 34 41 40 34 30 31 31 31 30 24 22 31 31 26 24 23 20 17 19 22 25 24 22 20 18 17 19 20 20 18 16 9 21 28 32 33 38 43
44 45 47 47 43 40 36 39 40 43 29 16 27 29 31 27 24 23 19 27 26 22 22 24 23 21 21 23 21 18 19 20 19 18 15 19 12 10 17 20 23 28 36 37 41
43 44 47 46 42 37 39 41 42 42 5 8 24 29 28 23 19 30 25 15 16 25 26 21 24 22 23 22 22 19 20 17 19 20 20 19 17 11 12 17 18 20 29 36 40
42 43 45 42 43 42 43 44 41 28 6 6 26 27 23 24 22 31 27 23 17 8 9 21 25 25 23 20 22 24 23 23 23 21 18 19 15 12 13 20 21 21 23 31 38
43 43 44 43 39 43 45 40 26 15 11 10 21 22 17 23 27 27 26 26 20 12 6 1 13 19 23 19 21 23 20 17 18 19 16 16 15 14 19 22 22 21 23 29 36
43 44 42 42 43 45 41 31 20 12 16 18 19 17 14 21 25 25 26 23 24 21 10 4 -2 5 11 16 15 22 21 17 14 14 16 18 16 16 22 22 23 25 27 31 36
43 38 41 41 44 45 37 25 10 15 19 21 16 13 15 21 24 25 23 22 25 22 15 10 8 12 13 12 11 17 19 21 19 18 21 18 21 24 24 24 25 25 24 28 31
37 38 37 40 44 42 32 25 18 23 25 23 14 19 14 18 16 20 24 27 27 30 32 20 15 15 15 20 17 13 18 19 20 16 14 14 18 18 21 22 22 25 28 30 30
38 34 34 40 44 37 26 28 23 21 23 23 21 19 20 20 19 17 20 27 28 29 32 28 21 19 23 19 17 19 20 20 19 18 14 12 14 21 21 22 24 26 28 30 33
37 29 33 44 32 32 29 27 29 22 22 21 24 24 21 21 18 17 16 23 28 28 28 33 31 19 17 21 22 20 19 20 19 13 20 19 17 25 27 28 29 27 30 29 36
34 31 36 40 26 26 31 32 26 22 23 21 20 22 22 21 17 19 20 27 27 25 26 28 32 23 18 19 19 19 20 21 20 21 21 22 20 22 22 24 26 29 29 29 31
34 27 31 36 34 29 23 26 30 30 23 23 25 24 24 23 23 20 20 21 27 24 27 25 22 27 24 27 30 27 26 22 21 21 20 19 19 22 24 24 24 27 28 28 30
35 29 26 27 29 31 29 27 26 28 25 24 23 24 23 21 22 23 23 23 23 23 26 27 20 17 19 22 23 24 27 27 23 20 21 21 19 19 20 23 24 26 28 29 28
31 30 29 24 22 27 31 26 26 21 26 24 22 21 23 24 22 22 24 24 22 24 27 27 28 29 27 25 24 26 25 26 25 23 20 20 21 23 25 25 26 26 27 29 28
37 38 36 27 26 30 28 29 27 26 25 24 23 23 23 24 26 30 30 28 27 25 26 27 26 27 21 24 26 21 26 28 24 24 22 22 22 24 24 24 25 26 27 29 30

GFSSW_sfc_30mbdewp_087.txt.gz
Dewpoint
47 46 46 47 47 47 49 50 50 49 48 48 49 50 50 50 48 32 22 27 36 46 49 37 38 32 27 23 22 23 17 15 13 11 9 8 14 16 19 21 20 28 29 42 52
49 48 48 48 48 48 48 48 48 48 47 47 48 49 50 50 41 25 35 46 47 46 36 31 33 30 25 23 21 21 17 15 14 12 10 9 13 14 14 15 18 22 28 40 50
46 46 46 46 47 48 49 49 49 48 48 47 47 47 49 47 30 19 43 49 55 50 35 30 29 27 25 21 19 19 17 17 15 14 11 10 10 14 15 14 16 17 21 27 45
46 46 46 46 46 47 48 50 49 48 48 48 48 47 48 42 12 31 43 53 54 43 36 29 28 26 24 19 19 17 18 16 15 13 12 11 11 10 13 15 18 19 22 31 33
45 45 45 46 46 47 48 49 48 47 47 48 48 47 42 27 22 26 37 49 44 41 32 26 26 23 22 18 17 18 16 16 12 15 14 14 14 13 14 15 16 18 20 30 36
45 46 47 47 48 48 49 49 49 48 48 47 48 47 35 26 14 11 22 25 25 35 31 27 26 25 21 20 19 18 15 17 18 16 18 17 17 15 14 15 17 19 22 28 38
45 46 47 47 48 49 49 50 50 49 48 47 47 44 33 23 17 17 26 20 25 23 27 32 29 26 25 24 22 20 19 20 19 19 19 19 18 18 18 15 13 21 26 35 37
44 46 48 49 49 50 50 50 50 49 49 47 48 42 30 24 22 23 23 18 24 29 27 28 30 29 27 24 24 22 21 19 20 20 19 19 17 18 14 12 13 25 28 35 40
43 44 47 49 49 49 49 49 49 49 47 48 44 38 24 27 23 21 20 16 13 15 18 15 18 26 26 23 22 22 19 19 18 20 18 16 15 17 15 20 21 24 27 36 41
43 44 47 48 49 49 49 47 44 45 45 42 38 36 32 10 17 30 37 17 14 21 16 13 5 13 13 14 16 17 18 16 16 19 19 17 16 17 14 20 21 24 27 35 40
43 44 46 48 48 49 46 38 31 35 37 29 26 28 19 20 23 18 37 38 36 33 17 12 -0 10 13 13 13 17 15 14 18 19 18 18 19 18 16 12 13 23 25 31 38
43 44 46 47 48 49 45 35 33 37 32 29 27 25 24 22 20 20 26 30 30 26 22 11 6 10 17 15 16 18 16 17 18 19 19 18 19 18 18 17 13 15 22 29 36
42 44 46 47 47 44 38 34 36 39 31 23 24 25 25 26 22 19 19 29 26 24 17 17 16 15 16 17 21 18 19 20 18 19 19 19 19 19 19 20 18 13 21 24 32
42 43 45 46 42 36 35 37 38 42 25 9 22 24 27 26 22 23 17 23 23 19 16 17 17 19 18 17 19 19 22 20 18 18 16 18 15 18 18 14 13 14 23 24 28
42 43 44 45 41 38 38 39 41 41 -4 12 18 28 27 22 19 23 27 15 17 18 19 16 19 19 20 19 17 20 20 20 19 16 17 17 15 17 19 16 15 19 23 26 29
41 41 43 38 39 38 38 42 40 27 1 3 20 24 24 24 19 29 25 18 12 12 18 21 22 22 18 21 24 24 20 20 19 17 17 19 19 18 18 15 19 20 19 21 27
41 42 41 38 36 43 44 41 24 11 6 1 18 22 17 21 24 25 23 19 15 9 11 14 12 20 22 21 23 22 20 18 18 18 17 18 17 18 18 19 19 19 20 22 26
42 43 37 36 38 41 42 33 19 7 7 15 15 17 12 16 23 25 25 21 22 16 13 4 0 -1 14 17 18 20 20 18 15 16 18 19 16 16 18 19 18 21 22 25 29
41 34 33 37 40 43 37 25 15 12 11 15 15 13 10 17 22 23 24 20 22 21 16 9 7 7 -0 6 13 14 18 20 17 19 20 21 20 21 21 21 22 22 22 24 25
34 32 31 34 40 41 32 25 16 18 22 19 16 15 10 15 18 19 21 26 25 29 28 21 16 13 9 12 7 7 4 12 15 13 14 14 14 14 19 21 22 22 24 25 23
34 31 29 35 41 36 27 27 20 24 21 22 17 16 15 16 16 13 15 26 27 27 31 27 22 18 16 14 13 11 8 12 16 16 12 12 11 19 20 21 21 25 27 28 29
33 27 28 39 32 30 26 26 30 26 19 18 22 21 20 16 16 16 14 19 25 25 26 31 30 20 17 17 18 16 14 13 14 15 14 14 15 19 23 23 25 25 29 30 33
30 29 32 39 24 25 22 27 31 27 24 20 15 16 16 17 15 17 18 23 25 21 24 23 28 21 18 17 19 18 19 19 18 18 17 17 17 20 19 27 26 24 27 29 31
33 27 27 35 31 29 23 19 21 31 30 20 21 18 18 18 19 21 19 21 25 23 23 24 18 18 19 26 25 21 18 20 19 18 18 18 17 19 23 22 23 25 27 27 28
33 28 23 27 26 24 23 24 24 20 30 25 25 24 19 17 19 21 23 22 24 23 23 21 19 16 15 14 16 21 21 22 21 21 20 19 18 18 18 18 25 24 25 27 26
30 28 24 20 18 24 21 21 20 28 30 26 24 21 19 18 18 25 30 28 27 25 25 29 23 23 20 19 18 17 19 19 20 20 21 21 20 19 21 22 24 21 22 25 26
35 32 30 24 22 19 19 23 20 22 22 24 23 20 20 23 23 27 27 28 27 28 26 26 25 25 20 16 23 20 17 19 23 27 25 19 19 21 20 23 25 25 25 25 27

GFSSW_sfc_30mbdewp_093.txt.gz
Dewpoint
48 47 47 47 47 48 48 49 50 48 48 48 47 48 48 51 50 40 27 28 40 44 42 35 38 36 36 35 31 27 22 19 18 16 15 17 10 16 17 16 17 18 21 44 56
46 46 46 46 47 48 48 49 49 48 48 47 48 48 49 50 46 35 35 42 43 44 30 24 20 34 34 31 29 26 21 20 20 18 18 18 17 11 15 16 17 19 23 52 55
45 44 45 44 45 47 48 49 50 49 48 48 49 49 49 49 38 28 46 44 43 41 27 22 19 18 31 31 28 23 22 21 20 20 21 20 17 14 13 12 16 19 20 52 53
45 44 45 45 45 46 48 50 50 49 49 49 49 49 49 46 1 36 46 49 50 51 41 30 25 18 21 28 28 24 22 21 19 20 19 18 18 15 13 13 16 17 20 48 48
45 45 45 45 45 46 48 49 50 49 49 49 49 49 46 32 29 34 46 47 47 45 37 34 25 23 22 26 27 25 24 23 21 20 19 19 18 15 14 16 18 20 19 18 39
47 46 46 44 44 44 46 49 49 49 49 49 49 49 41 23 24 21 28 33 35 33 33 33 30 30 25 25 25 26 26 25 23 21 20 19 17 16 17 19 19 18 18 17 16
46 46 46 44 44 45 46 49 49 48 48 48 48 47 39 21 24 23 24 24 22 21 18 23 33 29 27 26 26 25 24 24 24 24 21 21 19 18 20 21 21 21 20 19 16
46 46 45 46 46 46 47 48 48 48 47 47 49 45 36 32 31 28 26 24 21 19 18 20 26 26 28 29 28 26 26 23 23 23 22 20 18 21 22 21 20 20 20 19 18
46 46 46 46 46 47 48 48 47 47 47 48 47 43 34 33 32 31 29 24 22 19 19 16 24 23 26 27 26 26 24 24 23 24 23 21 19 22 22 22 21 20 20 19 17
46 45 45 46 46 47 47 46 44 45 45 44 42 40 39 28 23 21 23 25 18 15 16 14 15 17 21 24 23 23 22 23 22 23 23 22 21 22 21 19 18 19 19 18 23
45 44 44 45 45 46 46 40 33 37 40 38 37 34 29 31 28 21 20 20 26 19 11 12 9 10 12 16 20 20 20 20 20 18 18 20 22 23 21 19 19 22 21 21 23
44 44 44 43 45 45 43 38 39 37 32 33 32 32 35 35 31 29 25 21 32 13 10 10 9 9 10 9 9 11 14 14 15 16 18 19 24 28 27 20 20 21 23 23 24
44 43 43 44 44 41 37 36 40 39 33 27 27 27 28 27 27 26 20 18 20 29 24 16 21 16 10 8 4 2 7 14 17 20 25 28 26 27 26 22 21 21 22 22 24
43 43 43 43 38 38 39 39 41 41 28 22 21 20 22 21 20 21 20 18 17 13 24 26 26 23 18 8 9 3 2 6 14 23 23 29 26 29 29 24 21 21 21 22 21
43 43 42 42 37 33 36 37 40 40 -2 12 18 23 19 20 19 19 23 19 16 15 19 20 22 21 20 17 16 12 10 9 25 24 27 28 29 29 25 21 21 20 21 22 22
42 42 42 39 39 35 36 41 39 26 7 10 21 20 21 22 21 23 22 22 20 16 15 16 18 17 17 19 20 19 19 23 26 26 26 29 28 27 24 23 21 21 21 24 24
42 42 40 37 33 36 39 39 26 21 15 3 17 19 22 22 21 22 25 23 15 11 11 12 12 13 17 16 20 21 19 19 21 22 22 23 26 28 26 24 21 20 22 24 25
41 41 41 38 37 35 36 33 21 18 15 19 22 20 17 18 20 18 23 20 22 14 9 9 8 10 11 14 19 20 20 20 18 21 26 27 28 30 32 34 23 22 23 24 29
41 39 39 38 38 38 34 23 22 18 17 18 23 19 13 16 15 20 15 21 18 16 11 14 13 21 9 10 21 20 19 22 22 22 21 24 23 27 31 29 25 21 21 24 32
37 35 33 35 38 36 31 23 21 20 19 24 22 23 23 27 24 14 21 25 24 30 22 22 19 23 19 13 18 18 21 19 22 18 14 16 14 23 26 30 31 25 23 27 32
36 30 30 35 40 32 24 22 20 22 21 20 26 29 29 30 30 25 21 32 35 30 31 32 28 23 21 6 4 11 14 19 18 21 17 14 16 27 26 29 33 34 30 30 30
33 25 30 37 31 32 25 24 23 21 21 24 31 29 32 30 27 30 31 33 35 28 26 24 29 24 24 25 25 11 7 9 9 11 14 15 14 30 25 34 35 39 40 30 30
32 28 29 36 24 25 27 23 23 22 20 21 28 31 29 29 25 30 29 29 27 27 23 22 22 22 18 21 30 29 16 13 11 11 10 13 16 20 21 30 34 37 41 36 34
32 25 26 35 34 30 25 25 22 21 18 18 24 27 27 25 23 21 23 29 27 23 23 23 21 19 18 19 24 20 19 20 27 18 13 12 11 15 20 29 33 36 36 29 32
31 26 28 26 26 28 26 25 23 22 23 20 25 25 26 26 24 16 18 26 26 29 28 25 19 20 20 19 17 17 15 15 13 28 27 25 22 20 23 28 28 27 26 27 31
29 26 26 24 24 30 30 23 22 21 24 22 22 22 28 26 26 24 26 28 30 29 28 30 26 27 24 24 22 19 19 17 16 15 17 20 18 30 32 32 37 39 33 25 27
34 33 29 25 25 25 26 29 23 21 19 21 25 27 25 30 32 32 31 31 32 31 27 27 28 26 23 25 24 20 19 18 18 18 16 18 34 40 40 41 41 42 41 33 35

GFSSW_sfc_30mbdewp_096.txt.gz
Dewpoint
47 47 46 46 46 47 47 48 49 49 49 49 49 49 49 51 49 42 26 20 34 40 47 40 40 38 37 36 35 29 25 22 20 18 18 19 18 18 18 16 17 20 30 41 56
46 45 45 45 46 47 48 48 49 49 49 49 49 49 50 50 46 35 32 34 42 48 36 33 27 34 34 33 34 30 25 24 23 21 20 20 19 19 14 16 16 17 43 53 57
45 45 45 45 45 46 47 48 49 49 49 49 49 49 50 50 38 20 42 43 48 50 31 27 22 19 29 33 31 26 27 27 25 23 22 21 21 19 15 13 16 17 30 55 55
45 44 44 44 44 45 46 48 47 48 48 48 49 49 50 46 -7 35 47 50 49 44 32 30 25 19 16 24 31 29 27 24 24 24 22 20 20 19 17 17 16 17 24 53 54
47 46 45 44 44 44 46 47 47 47 47 47 48 48 46 31 22 29 44 51 51 48 36 32 26 21 17 21 24 27 28 27 26 24 22 21 20 19 18 18 18 20 33 49 52
48 48 47 45 44 44 45 46 47 47 47 47 47 48 42 22 23 23 24 21 35 41 36 35 30 26 24 25 24 26 27 26 26 26 25 22 21 20 19 19 19 19 19 38 50
47 48 48 46 44 45 45 46 46 47 47 47 47 47 40 28 25 27 27 24 23 24 19 23 31 32 30 27 27 26 23 24 26 25 24 24 22 21 21 21 21 21 21 20 22
47 47 47 47 46 46 46 46 46 46 46 46 47 47 37 36 35 33 30 26 26 23 20 18 18 22 27 28 27 26 27 24 25 24 24 22 20 22 22 21 21 21 22 21 21
46 46 46 46 47 46 46 46 46 45 45 46 45 43 33 37 37 34 32 26 22 21 19 19 17 22 25 24 24 26 23 24 25 26 24 23 22 23 22 22 23 23 23 22 21
45 46 45 46 46 46 46 46 41 44 45 45 44 40 37 27 30 28 30 27 22 18 15 16 14 17 22 24 19 22 24 24 24 24 24 23 22 23 24 25 27 27 24 21 20
44 45 44 45 44 45 45 37 38 35 40 39 38 35 31 32 34 26 28 24 22 15 11 15 11 12 16 22 24 25 23 23 21 22 19 17 17 18 24 28 27 27 23 20 18
43 44 43 43 44 44 43 35 38 38 33 33 33 36 38 37 34 32 31 22 26 22 17 12 10 10 13 15 15 16 16 18 18 17 16 15 18 24 26 26 27 28 26 23 22
43 42 43 44 44 41 38 35 38 38 31 29 29 29 29 30 30 25 28 19 18 24 16 11 12 11 11 10 9 8 7 8 10 13 20 24 20 20 22 28 30 30 28 24 23
41 43 43 43 32 37 32 34 36 41 22 16 25 24 26 27 24 24 22 18 16 16 25 25 22 12 16 9 9 7 8 5 4 5 7 26 16 19 22 25 28 29 28 25 23
42 41 42 42 36 34 33 35 41 38 -17 7 19 24 25 21 21 21 22 19 12 15 15 18 25 26 25 25 15 10 11 9 5 11 24 28 22 19 28 27 28 28 27 24 23
41 41 41 38 38 39 37 39 38 20 -11 10 22 20 20 20 21 24 21 20 19 17 17 16 17 16 18 19 19 20 18 20 24 24 21 26 23 16 25 26 27 27 26 26 24
40 40 41 39 33 36 38 38 24 18 18 18 20 21 22 21 20 21 23 20 15 14 13 15 15 16 14 13 16 18 18 15 18 20 19 23 24 22 27 28 29 29 29 29 28
41 41 40 39 39 38 37 31 19 19 19 22 23 22 20 22 22 21 25 20 22 14 11 11 10 12 14 14 15 17 19 15 14 17 18 27 25 28 32 32 32 33 33 32 31
40 38 37 36 39 38 33 23 22 21 20 21 21 23 23 25 28 23 20 22 22 22 13 11 9 14 10 12 15 16 18 22 19 23 21 23 25 24 29 35 37 38 35 29 28
38 35 35 36 38 36 30 23 23 23 21 22 20 29 25 28 26 29 21 25 21 21 19 20 19 22 23 12 15 18 21 19 19 16 16 18 17 16 27 36 38 38 38 38 39
37 31 30 34 38 30 22 21 21 20 20 25 27 25 23 26 28 29 30 32 36 33 27 29 28 22 25 10 10 13 15 21 22 22 18 16 16 35 37 39 39 37 37 38 37
33 24 29 38 28 30 23 25 24 22 23 22 27 27 27 31 29 28 29 33 37 37 28 27 30 24 23 29 29 22 15 20 20 20 21 21 20 32 33 41 38 37 39 41 41
31 29 32 37 24 25 27 26 24 23 23 21 24 27 31 30 27 30 32 32 35 35 30 24 23 22 17 27 30 30 29 22 26 18 14 12 15 23 28 33 36 40 41 40 39
31 24 26 33 33 29 24 21 22 25 23 22 20 21 24 27 29 27 30 30 30 34 34 25 21 20 17 18 23 24 30 21 23 25 23 22 18 23 30 29 37 39 41 39 35
32 24 28 26 28 29 27 29 24 23 25 25 22 21 21 24 25 26 31 33 33 35 30 28 19 25 26 23 21 18 23 22 18 21 22 28 27 30 35 36 40 41 41 37 35
27 25 27 24 24 25 27 26 23 22 23 27 22 23 23 24 26 26 31 28 26 30 28 30 25 27 23 24 24 22 23 21 20 18 19 22 23 40 40 40 41 44 42 36 39
35 34 29 25 25 22 26 25 27 27 28 27 25 23 25 26 33 33 35 32 31 30 27 27 28 25 21 25 22 18 19 21 20 36 33 25 37 39 39 40 43 46 45 44 45

GFSSW_sfc_30mbdewp_099.txt.gz
Dewpoint
46 46 46 45 46 47 47 48 49 48 48 49 49 49 49 51 50 43 23 16 32 37 43 45 42 40 38 35 33 28 26 22 22 20 19 20 20 20 20 17 17 26 41 43 57
46 46 45 45 46 47 46 47 48 47 47 48 49 49 50 50 46 32 29 34 43 47 30 34 32 35 33 33 34 31 27 25 25 22 20 22 22 22 20 18 16 18 43 55 58
46 46 44 44 44 45 46 47 46 46 46 47 48 48 49 50 34 4 46 47 46 50 35 33 31 31 31 33 32 31 27 27 26 25 24 23 24 23 20 18 18 16 26 55 57
46 45 45 45 45 45 46 46 45 45 45 46 47 47 49 45 -7 27 50 50 53 53 32 27 23 17 15 19 31 29 27 29 28 27 26 24 23 21 19 20 20 19 25 54 55
48 47 45 45 45 45 46 46 46 44 44 45 46 47 46 35 19 27 43 44 51 42 33 29 24 20 16 16 20 29 29 29 29 28 27 26 24 22 22 22 22 20 25 46 53
49 48 47 46 46 45 46 46 47 46 45 44 46 47 42 31 23 23 27 24 28 45 40 34 28 24 20 18 20 25 25 26 27 27 27 26 25 24 22 22 22 21 22 43 50
48 48 48 47 46 45 45 46 46 46 44 44 46 46 40 33 31 34 33 26 21 32 35 29 34 33 29 26 28 26 24 25 25 25 25 25 23 23 24 23 22 22 22 25 45
47 47 47 47 46 46 46 46 46 45 44 44 45 45 36 39 38 36 34 30 27 26 24 22 19 17 22 27 27 25 26 24 26 26 26 25 22 23 24 23 22 22 22 23 23
46 46 46 47 46 46 46 45 45 44 43 43 43 43 33 38 36 37 35 26 25 24 22 19 18 17 25 23 22 25 21 24 25 26 25 23 22 23 25 24 24 25 26 26 26
44 45 45 46 45 45 46 45 41 43 45 44 43 38 37 27 33 33 34 28 23 20 18 16 15 15 22 23 19 20 23 24 24 24 25 24 23 24 23 23 22 26 27 27 26
43 42 44 44 45 45 44 39 36 35 42 38 36 35 33 33 36 31 31 27 24 15 11 15 11 10 16 22 21 22 23 23 22 23 20 20 20 20 19 20 24 25 26 27 27
40 41 43 43 42 44 43 35 32 36 34 36 35 37 38 38 33 30 32 25 22 19 14 12 11 12 16 20 20 20 21 20 20 21 21 20 17 15 18 23 25 26 28 29 29
42 41 43 43 43 40 37 34 36 37 35 32 32 31 30 32 33 28 28 23 20 25 18 18 15 14 11 13 13 13 14 12 14 12 12 14 11 16 23 23 25 26 28 28 29
40 41 42 43 40 35 31 35 35 39 29 22 24 26 27 28 24 26 23 20 17 17 21 22 18 13 11 9 10 6 9 8 6 5 2 17 4 8 17 19 23 27 28 26 29
40 39 41 43 37 35 33 36 37 38 -1 4 21 26 28 25 19 22 23 20 13 15 19 21 23 22 13 13 11 9 12 10 9 7 5 10 19 15 24 23 21 22 27 29 29
41 40 41 41 37 37 38 39 39 24 2 13 22 22 23 22 21 21 19 19 17 12 15 17 18 17 23 22 24 21 16 17 17 13 11 14 22 14 16 22 25 27 29 36 30
40 41 41 40 32 36 38 38 25 16 14 20 20 22 22 22 19 20 19 18 15 9 9 10 11 16 16 14 15 17 16 17 18 22 17 22 24 19 23 25 29 35 39 39 36
41 41 38 39 38 38 38 28 15 17 19 20 19 24 27 28 26 23 23 18 20 14 11 11 6 12 13 13 12 14 16 16 14 14 14 25 23 22 31 35 38 39 40 39 38
41 37 36 37 39 38 33 19 21 24 20 21 23 26 26 26 27 28 22 23 21 18 12 10 10 13 13 13 13 13 16 19 16 22 19 23 25 25 31 38 39 40 40 39 39
37 35 34 36 39 36 27 24 24 21 20 24 24 25 22 23 27 27 29 34 32 34 25 16 12 20 23 14 14 13 17 17 21 17 15 17 19 18 29 38 39 38 40 40 39
35 29 30 36 37 29 20 21 21 21 22 23 22 23 24 28 30 27 31 33 33 35 35 24 22 17 22 15 11 15 16 18 19 20 16 15 16 34 32 35 39 41 41 41 41
33 24 28 38 24 27 21 24 25 24 23 22 26 26 30 28 27 28 30 33 33 36 33 30 30 21 18 29 32 16 18 22 19 18 22 21 20 33 30 38 39 40 43 42 42
29 28 32 36 24 21 26 26 24 23 24 23 22 26 29 28 22 30 30 31 32 31 33 33 29 23 22 28 27 29 29 23 26 21 19 18 20 29 29 31 39 42 43 42 43
31 23 25 31 32 28 25 23 21 25 26 25 22 22 20 25 28 25 29 33 33 34 34 37 31 27 20 19 24 21 25 28 23 23 21 21 22 28 35 35 40 40 41 44 41
31 23 26 24 27 28 28 25 23 22 24 27 25 22 20 20 25 25 30 33 33 34 36 35 27 29 27 24 22 23 21 25 21 21 20 23 22 32 38 39 40 42 44 44 41
27 24 27 25 24 24 24 24 23 27 23 22 26 26 27 28 24 23 27 31 29 30 34 33 29 28 25 24 22 21 22 22 22 21 22 25 24 39 40 41 43 45 44 43 45
33 32 29 23 24 22 23 24 25 23 23 28 28 29 27 25 28 27 30 32 33 31 28 26 27 24 19 25 20 18 23 23 33 35 34 29 36 39 39 42 44 45 45 45 45

GFSSW_sfc_30mbdewp_102.txt.gz
Dewpoint
47 47 46 46 45 46 46 46 47 46 46 46 47 48 48 49 50 45 30 20 35 36 43 46 42 40 37 32 32 28 22 20 18 19 16 20 20 22 22 19 19 22 34 45 58
47 46 45 45 45 46 46 46 47 45 45 45 46 47 48 49 46 37 33 36 43 46 38 35 37 37 33 32 33 29 23 19 22 21 19 21 21 22 22 21 20 20 37 56 59
48 47 46 45 45 45 46 47 47 45 44 44 44 45 48 49 32 5 52 48 47 51 34 35 34 34 31 33 33 31 25 26 25 24 23 23 23 24 23 21 21 21 22 54 58
47 47 47 46 45 45 47 48 46 45 44 44 44 45 48 45 -8 30 46 52 46 50 38 30 28 24 20 26 32 28 29 28 27 27 27 26 25 22 22 22 24 23 23 47 55
47 47 47 46 46 46 47 47 46 45 44 44 44 44 44 37 28 25 29 28 50 45 31 28 23 21 17 15 17 28 30 29 29 28 27 26 26 26 24 25 25 25 23 33 49
47 48 47 46 45 46 46 46 46 46 44 43 44 44 42 30 30 24 31 29 29 42 37 31 24 22 19 18 17 20 20 21 26 27 28 27 26 27 26 25 24 23 23 24 45
45 47 47 46 45 45 45 46 46 45 43 43 43 43 38 33 33 29 30 32 24 28 36 37 30 30 25 23 25 24 19 21 25 26 26 26 24 24 26 25 24 24 23 23 33
45 46 47 47 46 46 46 45 45 45 43 42 42 42 34 35 38 37 38 35 31 27 22 27 25 28 23 22 23 26 26 24 25 25 25 25 21 25 26 25 24 23 23 24 24
44 44 45 46 45 45 46 45 45 43 42 43 41 41 32 37 37 38 38 31 25 25 23 23 21 17 23 16 21 24 21 23 24 26 25 25 22 24 25 25 24 24 25 25 27
42 41 43 45 45 45 45 45 41 40 43 42 40 33 33 16 33 34 37 32 24 23 21 20 16 15 20 22 15 20 23 24 23 24 25 24 24 25 25 21 21 21 22 26 26
42 42 42 44 44 45 44 37 28 36 39 36 35 34 30 37 36 34 32 29 25 18 11 16 14 12 16 20 22 21 21 22 23 24 22 22 22 21 22 20 17 19 22 24 26
41 41 42 42 43 44 41 33 30 36 30 35 35 35 37 38 36 31 32 28 22 18 13 13 12 12 13 19 21 21 21 21 21 21 22 21 20 19 16 14 15 17 24 26 27
41 40 40 41 42 39 36 35 35 38 33 32 34 33 33 34 33 27 29 25 22 20 16 13 14 14 11 14 17 19 19 17 18 15 9 8 5 7 12 17 23 25 26 28 28
41 41 42 42 38 38 35 35 39 41 26 25 27 30 29 29 28 30 27 23 19 22 23 19 20 15 12 12 15 13 14 15 13 7 1 14 4 6 9 11 18 21 25 25 29
41 40 41 41 38 35 36 37 42 40 10 8 24 27 28 22 22 24 25 21 18 17 21 21 25 21 18 11 11 9 9 9 8 7 6 12 8 15 16 15 16 19 22 31 39
40 40 41 41 40 39 39 38 38 25 8 18 23 23 24 24 21 20 20 19 17 14 15 17 18 21 23 18 13 16 16 15 15 12 12 12 10 13 15 17 24 28 35 40 39
39 40 40 41 35 37 38 36 22 15 16 20 19 21 23 26 21 22 17 17 12 4 6 8 7 16 16 14 17 15 17 16 19 18 14 15 15 14 21 26 35 38 39 40 41
40 42 40 39 39 38 36 28 15 20 18 20 22 28 25 26 27 28 20 18 19 14 13 9 6 9 12 14 14 15 15 15 11 13 14 25 20 21 31 38 39 40 39 40 39
40 37 36 36 38 37 31 19 20 26 20 20 24 23 23 25 27 28 28 33 33 32 15 11 9 14 13 13 13 15 14 17 16 18 17 18 23 24 35 35 38 39 39 40 39
38 35 32 36 39 34 23 20 23 28 22 23 19 24 21 27 26 27 31 32 32 34 35 18 14 19 24 14 14 11 17 15 20 15 13 16 19 18 24 30 37 37 39 42 41
34 28 30 38 37 25 17 21 22 21 23 20 20 21 25 24 27 27 31 33 32 32 35 31 22 18 18 17 18 14 13 16 17 18 13 11 14 27 30 34 36 40 42 43 42
32 22 28 38 27 25 22 20 23 21 22 23 25 26 27 26 24 27 27 29 33 32 33 33 30 24 20 23 31 20 18 16 15 17 22 18 16 35 31 36 40 42 41 42 44
30 26 32 36 21 23 20 26 26 25 24 23 22 24 27 25 19 26 29 32 33 34 32 33 29 24 22 27 27 26 27 24 25 22 18 18 18 28 35 36 40 41 41 43 44
29 22 23 30 30 27 25 23 24 26 27 26 24 23 21 23 27 22 26 32 35 35 38 35 30 26 20 23 25 24 25 28 25 20 18 19 23 28 36 38 39 41 42 45 45
31 23 25 20 27 26 27 26 24 24 24 26 23 27 27 23 22 26 29 29 32 34 36 35 27 29 29 31 29 25 26 25 24 21 19 21 23 31 37 40 43 45 42 45 45
26 24 26 26 25 23 23 22 25 23 26 26 22 25 27 27 24 24 26 28 30 34 33 34 27 31 25 29 27 23 28 28 27 27 27 23 23 38 39 42 43 44 44 44 44
32 31 29 22 23 22 22 22 25 21 21 28 22 25 25 27 28 28 29 29 29 30 31 31 28 26 20 27 23 18 22 25 33 35 33 26 34 38 38 42 41 41 42 42 42

GFSSW_sfc_30mbdewp_105.txt.gz
Dewpoint
48 47 46 46 46 46 46 46 47 46 45 45 45 45 45 47 48 44 33 22 37 41 46 43 43 39 35 32 32 29 20 18 15 15 12 20 20 22 22 21 22 22 29 45 58
47 47 47 47 46 46 46 47 47 46 45 45 45 45 45 48 44 37 36 41 45 47 44 39 37 38 32 32 31 26 20 16 21 19 18 20 21 22 21 23 22 22 34 54 59
47 47 47 47 46 47 47 48 47 46 45 44 44 44 46 46 33 9 53 49 52 49 36 39 38 34 30 33 32 29 21 22 21 22 22 21 21 23 23 21 23 22 24 48 55
46 46 47 46 45 45 47 48 47 45 45 44 44 44 45 44 -9 34 37 44 48 50 42 33 36 33 28 28 33 27 29 25 25 26 25 25 26 24 25 24 25 25 27 39 50
44 45 46 46 46 45 46 47 46 46 45 44 44 44 40 37 33 28 33 33 48 47 34 28 28 27 23 22 27 30 28 29 29 28 27 28 26 26 25 25 27 27 28 27 40
44 45 45 46 46 45 45 47 47 46 44 43 43 43 40 28 32 31 30 30 24 42 34 30 26 25 22 18 16 17 21 21 24 27 28 27 27 28 27 29 28 28 26 25 28
45 45 45 45 44 44 44 46 47 46 44 43 43 42 37 32 34 32 29 28 30 27 36 36 30 24 22 20 23 22 20 20 20 22 23 27 24 25 27 28 27 27 27 26 25
43 43 44 44 44 45 45 45 46 45 44 43 42 40 32 34 35 35 36 35 36 34 27 23 23 31 29 27 21 26 27 20 24 25 25 23 19 25 26 26 26 26 25 26 27
43 43 43 44 45 45 46 46 44 43 44 44 42 38 29 35 34 36 37 32 30 31 26 19 24 20 21 21 21 24 19 24 23 26 25 23 19 23 26 26 25 25 25 25 26
41 41 42 43 44 44 45 44 40 42 43 43 38 33 31 16 32 35 38 36 28 25 19 18 19 21 20 16 9 14 21 22 21 25 26 24 24 25 26 24 23 23 23 22 22
41 41 41 41 41 43 42 37 29 28 35 34 33 31 31 35 37 35 34 33 28 19 9 17 16 15 17 17 16 18 18 18 24 25 24 24 24 24 24 24 23 23 21 20 23
41 41 41 41 41 41 39 34 33 37 28 32 32 32 33 33 32 31 33 29 23 18 16 16 17 19 15 19 18 18 17 19 23 23 22 21 20 18 16 15 14 14 14 17 26
41 41 40 41 41 38 36 34 39 38 29 26 27 32 32 32 30 27 31 27 23 20 17 15 12 16 14 15 18 19 18 19 19 18 14 12 6 2 9 12 14 17 21 27 29
41 40 40 42 37 38 34 37 39 38 23 18 30 31 32 32 29 29 24 20 23 20 20 16 16 16 16 12 14 11 18 19 19 16 10 11 -2 7 11 12 17 19 24 28 39
40 40 40 42 39 35 36 39 38 35 10 15 26 29 30 24 22 28 29 24 15 22 23 22 25 20 15 13 16 12 15 16 16 12 7 8 10 12 15 14 18 22 33 41 41
40 40 40 40 39 39 37 38 39 20 11 22 29 26 25 25 23 22 23 20 19 18 18 21 19 23 22 17 14 13 13 15 16 12 13 13 12 11 13 16 25 36 39 40 41
40 41 40 41 35 39 38 34 15 14 20 20 26 31 29 26 26 22 18 16 11 13 13 11 14 16 17 17 15 18 19 16 18 15 14 15 12 13 20 29 37 37 37 39 40
40 40 38 39 39 38 35 27 14 24 18 19 26 31 28 28 27 28 16 18 33 23 6 3 -3 8 14 17 16 16 18 13 9 15 13 20 14 17 27 38 38 38 38 39 40
40 36 34 36 38 37 27 14 17 24 24 20 18 23 24 28 28 31 31 31 32 34 16 12 9 11 13 11 16 16 14 19 16 19 16 16 22 24 38 37 38 37 39 39 41
36 34 31 37 38 30 21 18 22 26 22 20 16 20 22 22 26 30 30 34 33 32 35 23 15 19 19 14 15 15 20 16 18 12 10 14 17 16 29 29 36 35 38 39 41
32 26 31 38 36 24 15 18 21 21 21 19 19 21 24 23 25 29 28 30 31 32 33 31 22 19 19 17 13 12 11 16 18 18 9 9 11 22 29 31 33 37 41 40 42
30 18 28 38 25 24 21 21 25 20 24 23 24 25 23 24 23 24 26 29 33 34 32 34 30 22 19 22 30 20 16 14 12 15 19 14 12 33 33 34 38 40 42 42 43
28 26 30 34 18 22 23 24 27 25 24 26 23 24 23 22 20 25 26 32 34 33 32 32 29 22 22 29 26 27 27 21 23 20 14 14 15 33 38 39 40 41 42 44 43
27 18 22 30 29 25 24 22 23 26 26 27 27 26 26 22 27 24 26 31 33 34 37 34 29 26 18 22 28 24 25 27 25 20 18 18 19 30 36 39 42 43 43 45 45
29 23 25 17 25 24 24 24 24 24 26 26 24 23 25 24 23 24 28 26 28 34 36 34 27 28 28 29 30 27 25 25 23 22 19 21 24 25 36 40 43 43 44 44 43
25 24 26 26 25 23 22 20 24 21 22 25 20 21 24 25 27 25 25 25 26 31 32 34 27 29 27 29 28 22 24 27 28 26 27 26 25 38 40 42 40 41 41 41 41
31 30 28 22 22 22 22 22 22 21 19 23 24 22 22 26 31 31 31 30 27 27 30 31 29 25 19 26 23 15 20 24 28 34 33 25 33 37 38 39 38 39 39 38 38

GFSSW_sfc_30mbdewp_108.txt.gz
Dewpoint
48 47 47 47 47 47 47 47 47 47 46 46 46 45 45 46 46 34 22 22 30 43 42 32 38 33 32 26 27 24 18 15 14 12 10 15 14 19 21 21 21 22 24 35 50
46 47 47 47 46 46 46 47 47 47 46 46 45 45 45 46 38 25 19 34 45 46 26 28 24 29 28 27 25 22 18 18 18 17 15 14 15 16 17 16 18 20 27 41 49
44 45 46 46 46 45 45 46 47 46 45 45 45 45 46 43 22 1 44 47 49 51 29 28 19 26 25 25 26 24 19 21 20 18 17 16 15 17 16 12 15 19 22 26 38
44 45 45 45 45 46 46 47 46 46 45 45 44 44 45 36 -7 27 38 35 48 38 33 24 27 27 21 23 25 24 22 23 22 21 19 18 17 17 18 17 17 21 24 27 28
45 45 45 46 45 45 46 47 46 45 45 45 45 44 39 30 26 14 32 27 23 34 27 23 20 20 17 16 20 23 24 23 24 23 22 21 21 21 21 22 24 23 26 27 28
45 45 44 44 44 44 44 45 45 44 45 45 45 44 36 29 27 25 26 25 21 35 22 23 20 20 17 16 17 20 22 23 24 24 24 24 22 23 24 26 26 27 26 25 26
43 44 44 43 43 44 43 44 45 45 45 45 45 42 34 31 30 26 27 23 24 27 29 25 24 23 20 18 19 18 17 17 18 19 19 20 19 19 19 21 23 22 22 23 26
43 43 43 43 43 44 44 44 44 43 43 43 43 40 33 32 29 29 27 26 26 25 24 29 28 28 23 22 21 18 17 14 17 19 19 20 19 22 25 25 25 26 26 27 27
42 41 42 43 43 44 44 44 43 41 41 44 41 38 26 31 30 28 27 22 20 23 22 19 20 24 24 22 17 18 15 16 19 23 21 20 19 20 22 23 24 26 26 26 26
41 41 41 42 42 43 43 43 41 40 37 40 39 36 34 23 27 33 35 29 29 24 21 17 13 12 20 17 13 14 17 19 20 22 23 22 21 22 25 25 26 26 26 26 26
41 41 41 41 41 42 39 29 25 24 30 25 19 30 28 27 29 29 33 34 31 23 3 7 9 9 8 16 16 14 12 11 12 19 21 21 20 21 23 25 25 25 25 25 25
41 41 41 41 41 41 36 29 33 35 29 25 25 26 25 22 21 25 31 31 26 19 4 7 6 6 9 12 16 17 18 12 10 21 22 18 17 18 19 20 20 18 15 15 16
41 41 41 41 42 37 34 32 35 37 25 19 20 24 23 24 21 21 26 29 23 16 8 8 4 7 11 13 15 18 17 16 10 12 17 15 11 10 10 8 7 8 11 12 17
40 40 40 41 38 36 31 35 36 38 23 11 26 31 33 27 26 24 23 27 24 17 11 9 14 9 13 14 15 12 14 12 15 21 9 8 1 4 7 9 11 13 18 22 32
39 40 41 42 37 32 32 37 37 37 7 18 31 39 36 28 21 19 22 20 19 19 20 16 11 16 14 14 13 11 10 12 14 13 10 4 2 -0 12 9 12 17 24 34 38
39 41 41 38 37 35 37 38 37 23 11 19 24 30 33 28 24 25 23 20 16 17 20 18 24 15 13 18 15 16 15 13 12 9 5 5 0 0 7 11 16 27 34 38 39
40 41 39 38 33 38 38 34 21 12 17 16 16 28 31 30 23 20 21 16 8 10 10 13 18 21 24 19 20 13 14 15 15 13 7 12 9 6 14 20 23 30 33 35 36
40 40 38 36 37 39 35 28 13 17 17 16 15 24 28 31 30 18 14 17 22 12 3 8 8 15 20 20 17 14 15 8 9 10 9 16 11 11 16 26 33 32 32 34 35
40 35 34 37 39 38 27 14 15 20 14 13 13 18 24 24 31 30 29 29 29 31 11 5 3 11 12 17 16 16 16 15 15 16 14 13 17 25 30 32 33 31 32 32 34
34 31 33 40 41 32 20 15 16 19 16 14 13 19 23 23 27 30 30 32 32 32 33 22 10 8 11 11 11 13 15 15 14 6 3 2 8 9 27 28 31 30 30 34 37
32 23 31 38 40 25 15 9 14 17 22 20 18 18 19 17 22 29 29 32 34 33 33 31 20 19 17 14 8 9 15 15 13 11 4 1 8 19 20 26 28 28 34 37 41
30 22 31 38 25 26 18 21 24 21 22 24 23 19 19 20 19 21 23 28 32 35 33 33 30 17 17 27 17 7 7 12 10 10 13 9 8 27 30 30 32 34 38 41 42
26 23 30 37 19 18 20 21 24 23 22 24 23 23 23 20 19 20 21 28 28 33 34 34 28 15 17 24 26 22 19 13 15 17 14 13 16 31 33 34 37 38 39 41 43
30 23 22 29 26 22 20 20 21 25 25 24 24 22 22 20 21 20 22 24 25 33 37 35 28 26 16 19 24 22 23 22 20 17 13 12 14 26 29 32 37 40 43 42 42
30 25 24 19 20 19 20 20 20 20 21 24 21 19 21 21 21 20 22 23 24 34 36 34 26 27 25 26 27 24 23 22 19 20 18 15 18 23 32 36 39 40 40 40 39
29 26 25 20 21 21 18 16 18 20 17 18 22 21 19 22 24 22 23 23 23 29 29 35 26 28 23 24 26 23 22 22 21 21 22 21 21 34 38 39 38 38 38 38 37
30 30 26 22 19 17 15 17 19 18 16 19 20 19 19 22 25 26 29 29 28 27 28 31 28 23 18 22 22 17 20 20 22 26 27 23 31 34 35 37 37 37 36 35 35

GFSSW_sfc_30mbdewp_111.txt.gz
Dewpoint
46 47 47 47 47 46 46 47 47 47 46 46 46 45 45 46 46 33 20 20 27 41 35 14 25 29 26 26 26 25 21 19 18 17 14 13 11 12 12 6 14 17 20 33 42
45 45 45 46 46 46 46 46 47 46 46 46 46 45 46 47 38 24 32 43 46 45 29 12 17 21 23 25 25 23 22 21 20 19 17 15 14 12 14 11 14 20 25 33 39
44 44 45 45 45 46 46 47 47 46 46 46 45 45 46 44 25 16 38 31 47 52 41 25 17 17 20 23 25 24 23 24 22 21 19 17 16 16 14 14 11 17 21 26 32
45 45 45 45 46 46 45 45 45 45 44 45 45 45 46 38 -3 26 38 36 33 35 36 28 22 17 16 20 23 23 24 24 24 23 21 19 19 18 16 16 15 14 18 23 24
45 45 45 44 44 44 44 44 44 44 44 44 45 45 41 28 23 20 35 30 22 21 25 26 22 22 18 21 21 22 23 24 24 23 23 22 21 20 19 18 19 19 18 21 25
44 44 44 44 44 44 44 44 45 44 44 44 44 45 37 26 23 23 20 18 18 12 6 16 18 20 19 21 20 21 23 23 24 24 24 23 22 22 22 23 22 22 23 22 23
43 43 43 43 43 43 43 43 45 44 43 42 42 41 33 27 24 24 21 20 18 16 17 21 12 18 18 18 19 18 17 19 20 22 23 24 23 22 23 23 24 25 25 24 23
42 42 42 43 43 43 43 44 44 43 43 43 43 37 30 29 29 27 25 22 20 17 17 20 21 19 19 21 19 18 17 15 17 18 20 20 18 21 23 23 22 22 23 24 23
41 42 42 42 43 44 44 44 44 43 42 42 39 35 28 26 24 26 26 22 17 17 16 17 18 23 20 19 19 19 16 16 17 18 17 18 17 19 20 23 24 25 25 25 25
41 42 42 42 42 43 44 43 38 40 35 29 32 31 25 20 19 23 27 29 23 16 17 17 12 11 13 15 15 17 18 17 16 17 17 18 19 21 21 22 22 24 25 26 26
42 42 41 41 42 42 41 28 22 19 25 21 16 18 19 20 22 19 18 26 31 16 12 14 6 5 6 13 17 18 18 17 19 18 21 22 21 21 21 23 24 25 26 26 27
41 41 41 41 41 42 40 27 28 32 30 26 22 19 27 34 30 23 22 22 32 23 16 10 3 3 7 8 14 17 17 20 19 19 18 18 19 20 20 20 22 24 25 25 25
40 41 41 41 41 40 32 29 31 34 26 20 23 26 30 34 32 22 21 20 28 28 18 6 2 1 6 7 8 14 16 18 16 16 19 16 16 15 14 15 17 20 21 19 17
39 40 41 42 39 30 27 31 33 34 23 15 20 28 29 32 33 25 18 22 28 32 17 5 1 1 4 5 9 9 16 17 18 18 18 21 16 14 14 8 11 12 11 11 12
39 40 41 41 35 29 29 33 34 36 8 13 16 25 24 30 29 18 20 22 21 30 26 11 6 6 6 6 12 11 17 20 19 17 15 13 15 13 9 5 8 10 13 18 25
40 41 41 36 36 32 34 36 35 25 9 10 12 15 22 33 31 25 17 19 23 23 30 12 12 13 11 8 12 15 14 14 14 14 11 12 9 7 6 10 6 9 19 29 32
40 41 40 34 31 35 37 31 25 15 13 9 8 15 23 27 32 20 13 12 15 13 23 21 26 13 14 15 16 17 18 17 15 13 11 11 8 6 7 12 14 21 28 31 33
40 41 38 33 37 38 32 28 16 13 12 11 9 15 24 29 26 30 15 5 9 5 8 9 13 21 21 14 16 16 15 20 15 14 11 10 10 8 8 15 21 26 29 30 31
40 35 32 37 39 35 26 18 11 17 12 12 10 12 16 15 28 31 26 29 23 20 18 7 9 13 21 18 16 15 11 14 16 19 19 16 13 21 16 19 28 26 25 27 29
32 27 29 36 39 33 22 13 6 11 15 15 9 13 13 13 21 28 30 32 33 33 31 22 8 8 10 17 15 14 13 12 14 9 7 6 11 13 18 22 26 24 26 28 31
33 23 30 35 38 25 21 12 14 15 18 18 16 17 13 15 18 28 29 31 32 34 34 29 23 8 7 8 7 8 12 11 9 7 5 5 9 21 21 23 25 25 27 30 33
28 24 30 35 26 25 19 18 22 18 18 20 23 18 19 18 15 21 22 25 30 37 33 33 30 15 14 13 11 2 8 11 7 6 7 11 22 21 24 24 26 27 30 34 38
22 19 28 35 21 14 17 17 20 21 20 20 21 18 18 20 20 15 20 25 24 33 34 34 26 25 27 21 13 5 5 13 14 12 15 10 8 25 27 29 31 34 42 42 42
29 26 21 23 22 21 18 17 17 21 21 20 20 18 17 18 18 20 17 18 24 31 35 36 30 28 24 28 21 19 11 8 11 12 10 12 28 32 27 27 38 39 40 39 40
31 26 20 20 19 18 18 17 15 17 18 18 19 19 17 16 16 16 16 18 19 29 29 32 27 25 26 26 24 26 24 18 15 16 16 19 22 30 36 38 38 38 38 37 37
29 28 23 18 18 17 17 14 15 19 16 15 17 18 18 16 17 17 19 19 20 24 27 29 28 24 19 18 20 19 17 17 15 13 14 14 13 33 37 37 36 36 36 36 35
30 29 26 22 18 16 13 14 15 16 16 16 17 18 18 18 21 22 23 24 24 23 26 28 28 24 16 17 17 15 17 17 16 16 19 18 29 33 36 35 35 35 35 34 33

GFSSW_sfc_30mbdewp_114.txt.gz
Dewpoint
46 46 46 47 47 46 46 47 47 47 47 47 46 46 46 48 47 36 26 23 24 38 29 19 10 20 24 29 31 29 25 22 20 18 18 17 15 13 13 9 8 13 17 38 44
44 45 45 45 46 46 46 47 47 47 46 46 46 46 47 48 41 29 35 45 44 43 22 17 11 9 21 24 28 27 25 23 22 21 20 18 18 15 13 12 11 11 20 34 40
45 45 45 45 46 46 46 46 46 45 44 44 44 45 47 45 31 29 36 33 35 40 39 29 21 12 14 20 23 24 23 25 24 22 22 20 19 17 14 12 14 14 18 25 32
46 46 45 45 45 44 45 45 45 44 44 44 44 45 46 41 4 29 34 30 29 28 30 36 30 22 13 17 20 21 25 24 24 24 23 21 21 19 18 16 17 16 20 22 27
45 45 44 44 44 44 44 44 44 44 44 44 44 44 40 27 23 21 35 36 28 19 18 23 26 22 19 18 18 19 21 23 25 24 24 24 23 21 20 20 21 19 18 22 26
44 44 44 43 43 43 43 43 43 43 43 44 44 43 36 26 22 20 19 18 16 14 11 9 10 19 21 21 21 18 20 22 23 24 24 24 23 22 23 23 22 23 20 20 22
43 43 43 43 43 43 43 43 43 43 43 43 43 41 32 26 26 26 24 23 21 18 13 13 7 8 15 18 21 22 21 22 22 22 24 24 23 22 24 24 23 23 23 23 24
42 42 43 43 43 43 42 43 44 43 43 44 44 38 31 30 29 24 25 25 24 22 21 14 15 7 14 14 18 18 19 18 21 20 21 22 21 24 24 25 24 25 25 25 26
42 42 42 43 43 43 44 44 44 44 44 45 38 37 30 25 19 14 13 19 24 25 20 17 14 18 19 12 13 18 16 17 18 19 18 19 19 22 24 23 23 23 24 25 26
42 42 42 42 43 43 43 43 41 43 39 32 28 25 22 17 19 25 22 21 18 19 27 23 14 11 14 15 13 16 17 17 17 19 19 18 18 19 20 20 21 23 24 25 25
42 41 41 41 41 42 41 30 23 25 26 20 18 18 19 21 29 26 28 27 23 16 14 29 15 9 10 18 18 17 16 17 19 20 20 19 19 18 19 20 21 24 25 26 28
41 41 41 41 42 42 40 27 27 31 29 27 25 23 23 25 23 24 29 27 24 17 13 30 26 11 11 9 13 13 13 16 19 20 24 26 26 22 21 22 22 24 24 26 27
40 40 41 42 42 40 32 28 29 32 29 24 20 21 25 23 20 24 26 26 21 17 18 28 26 11 10 3 5 9 11 16 17 24 30 26 26 18 21 22 22 24 26 27 27
40 40 41 42 40 32 28 29 32 34 27 14 13 16 18 18 22 26 26 19 24 22 29 31 31 13 8 5 0 6 10 14 17 22 27 25 16 16 18 19 18 17 18 23 25
40 40 42 42 37 31 29 32 34 35 11 12 10 12 13 20 23 27 31 23 23 29 29 30 31 16 6 3 -1 5 9 13 17 20 24 22 18 18 19 20 22 18 16 18 20
40 40 41 36 39 36 33 36 35 28 12 6 10 7 11 20 25 30 31 30 19 27 30 31 30 26 8 1 -1 6 14 18 19 20 19 19 18 16 18 21 22 16 11 18 28
41 41 40 34 32 34 37 34 27 17 9 7 6 7 12 17 20 24 25 19 9 16 22 19 24 26 18 7 3 14 15 17 19 17 17 18 17 17 15 15 18 14 15 32 34
41 42 39 33 36 37 35 29 18 13 8 6 6 7 10 17 19 25 29 16 6 12 14 6 24 28 23 12 7 16 15 18 12 13 13 14 14 14 15 13 14 24 31 33 33
41 36 37 38 39 37 32 20 8 9 6 9 10 7 10 12 26 29 31 28 29 31 26 24 17 28 26 16 16 16 16 20 19 24 21 15 15 17 13 19 24 28 31 30 31
36 30 29 34 36 38 27 16 6 7 12 14 9 15 11 13 15 26 27 31 28 31 33 30 27 25 27 18 16 17 20 18 19 15 17 27 13 20 14 23 28 31 27 28 30
37 28 34 33 38 35 25 14 15 14 15 14 14 14 16 14 17 18 24 27 26 31 32 30 28 24 17 26 21 20 15 15 16 15 11 15 23 27 20 27 35 24 29 39 41
32 25 30 31 32 27 21 16 18 15 16 16 17 15 14 16 22 15 16 18 22 34 30 31 32 25 16 9 10 13 13 15 15 13 10 11 19 32 31 26 27 41 41 43 42
27 20 30 35 27 16 16 15 16 15 17 16 17 16 17 14 18 25 16 18 20 27 30 31 29 24 21 22 9 5 4 9 14 13 16 15 13 34 35 36 40 40 40 39 39
30 30 24 23 20 19 16 15 14 19 17 16 16 23 17 14 15 25 17 16 19 26 31 34 29 29 25 29 31 18 1 2 7 13 13 20 24 30 38 39 38 38 38 38 37
34 30 21 24 21 18 16 16 13 13 16 16 16 19 15 16 17 16 15 16 18 26 24 28 27 28 26 24 30 34 30 20 6 12 12 27 28 36 39 39 37 36 36 36 36
27 32 23 20 18 17 17 13 13 14 15 14 15 16 17 16 18 17 19 19 19 20 20 26 27 27 20 15 23 29 31 30 30 27 23 23 25 40 39 37 36 35 35 34 34
31 28 25 24 19 17 17 12 11 12 13 14 14 15 16 18 22 23 23 23 23 24 20 25 29 25 17 17 15 13 16 18 15 16 19 23 34 39 34 34 34 33 33 33 32

GFSSW_sfc_30mbdewp_117.txt.gz
Dewpoint
45 46 46 46 46 46 47 47 47 47 46 46 45 45 45 48 47 41 32 33 32 37 29 26 22 15 16 24 26 30 30 27 27 24 23 22 20 19 12 11 10 12 20 46 50
44 44 45 45 46 46 47 46 46 45 45 45 45 45 46 47 44 37 40 46 43 41 22 17 17 15 12 19 24 28 28 28 27 25 24 24 22 21 14 12 10 13 41 44 50
45 45 46 46 46 45 45 45 45 45 45 45 45 44 46 46 38 30 34 33 30 32 33 34 34 20 14 14 17 24 27 28 28 27 26 24 23 23 19 12 12 13 36 39 40
46 46 45 45 44 44 45 45 45 45 44 44 44 44 44 43 -10 31 34 30 27 31 25 26 37 31 23 17 13 19 22 25 26 26 25 25 25 24 23 18 17 15 30 36 36
45 45 44 44 44 44 44 44 44 44 43 43 44 44 41 32 29 26 34 34 35 28 24 19 14 19 28 24 21 14 17 20 22 25 25 25 24 24 24 24 23 23 23 25 32
44 44 43 43 43 43 43 43 43 43 43 43 44 44 38 18 24 27 28 25 24 23 21 19 14 12 8 11 21 20 19 19 20 21 23 24 24 24 25 25 24 23 23 23 28
43 43 43 43 43 43 43 42 42 42 43 43 44 42 34 25 26 28 29 25 25 25 22 22 21 17 10 7 12 21 20 21 22 19 20 23 23 23 25 25 25 24 24 24 24
43 42 43 43 43 43 43 44 43 43 44 45 45 40 32 32 31 31 22 17 16 23 23 23 23 19 18 14 8 3 12 16 19 22 21 22 20 23 25 24 24 24 24 24 24
42 42 43 43 43 44 44 44 44 45 46 46 43 39 34 31 26 18 25 26 25 23 21 18 26 23 19 14 14 4 7 12 17 20 21 22 20 23 25 25 24 25 25 25 25
42 42 42 42 42 43 44 43 43 45 41 40 34 30 26 19 20 22 25 26 26 28 24 18 20 26 23 14 11 7 8 11 16 18 20 20 20 20 22 22 24 25 25 25 25
42 42 41 41 42 43 43 38 26 30 27 24 21 22 20 20 24 23 24 24 28 28 25 23 14 17 22 18 13 12 14 11 16 19 19 19 19 19 20 20 20 22 22 24 25
41 41 40 41 42 43 43 27 29 30 28 29 28 27 26 24 22 23 23 24 24 21 25 24 20 16 17 27 21 12 10 14 17 19 21 20 24 20 23 21 19 20 22 23 27
40 40 40 42 43 43 35 28 33 33 30 28 24 21 22 21 20 21 26 25 19 22 24 22 25 19 17 23 26 12 9 10 15 25 29 27 26 26 27 23 21 20 22 25 27
41 40 41 43 41 36 30 33 36 35 26 23 19 17 14 15 21 24 31 20 22 21 21 24 24 26 22 21 25 9 9 8 11 13 23 28 20 22 27 24 20 21 21 24 27
41 41 41 42 39 36 34 35 36 36 12 12 10 10 8 18 18 22 27 24 20 21 26 22 26 31 30 27 23 10 10 7 9 18 29 28 26 21 21 19 19 21 23 22 22
41 41 41 40 40 39 38 38 37 27 12 6 6 7 10 17 17 22 28 30 29 22 25 27 29 31 31 29 21 12 10 10 22 28 25 23 23 19 18 18 19 21 22 23 23
42 42 41 38 35 38 39 37 27 19 9 4 5 10 12 15 17 23 28 28 24 22 18 15 19 25 31 29 26 10 6 18 21 23 18 20 19 19 20 19 19 20 22 29 31
41 42 39 38 39 38 37 32 22 11 4 8 12 12 13 16 18 24 30 26 27 28 29 20 23 29 29 28 19 11 19 20 18 17 15 17 18 18 20 21 21 21 32 34 33
41 39 38 40 40 40 35 25 10 4 9 12 13 15 14 16 18 25 28 28 24 26 28 25 22 29 30 32 28 18 17 22 22 23 20 15 15 17 19 23 27 30 32 34 38
38 37 37 38 37 38 33 23 11 11 13 14 12 16 14 15 19 22 24 28 24 27 32 29 24 28 33 34 22 16 19 19 27 21 20 26 17 17 25 31 36 42 39 41 41
38 35 35 34 39 36 26 22 15 14 14 14 14 16 15 15 16 23 20 21 20 28 30 31 29 25 29 28 22 20 17 24 29 21 18 23 25 30 29 31 40 43 44 42 40
36 29 34 34 33 32 27 15 17 14 17 16 17 15 19 20 16 22 23 23 21 26 28 31 30 26 22 26 24 26 22 20 19 20 17 20 27 38 40 41 42 42 41 40 38
35 31 34 36 29 26 21 16 15 16 14 16 15 20 24 17 17 19 24 25 21 22 29 31 28 23 21 22 29 27 23 18 20 21 13 16 27 40 40 41 39 37 38 38 37
35 24 30 32 27 18 18 17 15 19 16 14 18 25 19 17 18 19 21 20 22 21 27 31 30 28 21 24 31 28 29 26 16 16 15 22 31 37 39 38 38 36 36 35 35
34 29 23 25 22 16 16 17 16 13 16 16 16 17 16 16 18 23 21 21 22 22 23 24 25 27 28 28 32 31 30 29 25 22 14 27 33 36 36 37 37 35 34 33 33
21 32 28 26 19 17 18 15 14 13 13 13 15 16 16 16 19 21 22 22 22 22 24 25 25 28 25 25 26 27 30 28 28 28 28 32 35 38 39 38 34 33 32 32 32
33 32 28 25 21 20 19 14 15 16 16 17 16 15 18 22 24 24 25 25 24 24 24 26 26 25 22 24 24 28 32 33 32 36 32 30 36 35 33 33 32 32 31 31 31

GFSSW_sfc_30mbdewp_123.txt.gz
Dewpoint
45 45 45 46 46 47 47 46 46 45 45 45 45 45 45 46 46 39 26 31 40 47 38 25 23 19 16 17 25 31 31 27 28 28 27 28 27 28 27 26 24 19 27 43 57
44 44 44 46 46 46 45 45 46 45 45 45 44 44 45 47 41 29 36 44 43 39 27 25 24 31 17 12 20 20 22 25 31 31 31 31 31 29 27 26 25 26 32 50 61
44 46 46 46 45 45 45 45 45 45 45 44 44 44 46 46 32 26 42 39 39 42 28 26 26 36 23 13 12 15 16 19 27 31 31 31 30 30 28 27 28 26 24 50 59
46 46 45 45 44 44 44 45 45 44 44 43 44 44 45 41 -13 28 40 38 36 28 23 21 19 18 26 21 19 12 10 11 16 24 25 25 28 28 28 27 27 26 26 48 56
46 45 45 44 43 44 44 44 45 44 43 43 44 45 41 17 5 26 33 31 25 23 21 22 18 18 15 16 17 14 17 21 20 19 14 14 17 22 24 26 28 28 27 37 53
45 44 44 44 44 44 44 44 44 44 43 44 45 45 38 -0 18 25 30 28 26 23 20 22 21 21 20 18 16 15 16 15 14 13 10 15 17 17 19 21 25 26 26 26 46
44 43 44 44 43 44 44 44 43 43 44 45 46 43 37 15 25 31 31 28 29 25 21 23 22 20 19 17 20 18 16 15 13 10 11 11 15 17 16 18 21 26 26 26 30
43 43 43 43 44 44 43 43 44 45 45 46 47 42 26 30 34 37 33 28 25 23 22 25 23 21 18 20 20 19 17 8 5 8 10 13 8 11 21 19 19 21 25 26 25
43 43 43 43 43 43 43 44 45 46 47 46 43 38 19 33 28 30 34 24 22 24 26 26 26 23 20 18 16 19 8 10 8 9 9 8 6 9 15 21 21 21 22 25 26
42 43 43 43 42 43 45 45 45 46 46 45 39 31 27 16 22 21 23 22 22 23 25 27 24 21 20 16 9 6 8 9 10 10 11 11 11 13 13 17 21 21 22 24 26
42 42 42 42 41 43 44 31 20 23 31 18 20 24 21 23 24 22 24 24 24 26 25 25 22 17 19 18 16 15 16 15 17 18 18 15 13 12 14 15 14 22 23 25 25
42 41 41 41 42 43 43 29 26 27 12 29 29 28 28 26 23 21 25 25 25 23 24 21 20 20 22 23 21 21 18 17 17 16 18 19 18 15 13 15 14 18 22 25 26
41 41 41 41 43 40 33 32 32 33 20 21 28 26 24 27 22 17 26 26 24 23 22 19 20 22 21 21 21 22 22 21 20 21 18 19 18 14 13 17 19 17 22 23 25
40 41 41 42 39 37 32 35 35 34 20 23 23 22 20 22 17 20 27 26 22 22 22 22 23 21 20 19 20 20 22 24 30 26 18 16 11 16 19 24 26 19 20 22 22
41 41 42 42 36 34 35 38 37 34 -6 21 13 12 16 16 17 17 26 26 25 24 24 24 24 24 24 24 24 26 27 31 26 21 17 18 17 17 22 25 25 25 21 23 24
41 42 42 41 39 38 39 39 36 21 2 7 7 11 15 16 18 20 25 30 27 27 26 25 26 24 24 24 28 32 30 28 24 22 16 16 17 16 21 23 25 26 24 41 42
42 42 41 39 35 38 39 36 21 11 7 6 5 14 17 15 16 21 26 24 22 22 20 25 26 26 26 29 30 30 24 17 15 17 13 15 14 15 20 26 27 28 41 41 42
41 42 39 38 38 39 36 29 14 11 6 10 13 16 14 17 16 21 23 21 23 24 25 23 18 26 29 28 27 30 21 15 9 16 17 22 17 22 33 27 37 39 41 41 41
42 40 36 36 38 39 32 21 13 7 11 12 14 15 15 16 18 19 22 23 24 22 23 23 22 24 26 28 32 27 27 23 16 23 22 24 23 33 38 38 40 40 40 38 38
36 37 37 40 40 37 27 14 11 13 13 14 13 16 15 17 17 17 21 23 21 21 23 27 23 25 27 33 33 32 28 20 21 18 16 20 26 30 36 35 37 36 36 36 36
37 32 37 39 40 32 19 20 13 14 15 14 14 14 16 19 19 18 22 23 23 22 22 26 28 24 27 31 30 31 30 30 29 28 22 21 26 37 37 37 36 35 35 34 34
37 29 36 39 31 30 25 24 16 15 17 17 16 18 20 20 16 17 20 22 26 23 21 23 27 25 23 30 31 32 32 31 27 24 27 27 27 39 38 37 37 36 35 34 34
32 32 36 36 26 28 28 18 17 16 15 16 15 23 19 17 14 19 20 23 25 23 21 25 24 22 16 22 25 29 30 32 33 32 27 24 26 33 35 34 34 34 35 35 34
32 24 30 31 31 20 17 18 17 20 17 17 20 17 15 14 18 14 16 23 24 23 26 27 27 23 19 22 29 28 30 31 32 27 26 29 28 30 30 30 31 32 33 33 34
31 28 28 24 24 20 18 17 16 17 14 16 18 16 15 13 15 18 21 22 22 23 25 25 23 24 24 26 30 30 31 32 29 31 28 30 27 29 30 30 30 31 33 31 31
29 28 28 25 18 16 17 16 15 12 13 13 15 17 16 16 16 17 21 21 21 23 22 25 22 25 23 27 30 24 27 28 28 30 33 31 27 31 31 31 30 31 31 30 30
34 32 27 26 21 19 19 16 17 17 18 19 20 20 19 20 22 25 25 25 24 23 23 24 25 24 20 24 31 21 25 27 28 29 30 27 29 30 29 28 28 29 29 29 29

GFSSW_sfc_30mbdewp_129.txt.gz
Dewpoint
49 47 46 46 46 47 46 46 46 45 45 45 44 45 46 47 44 31 28 39 43 47 37 24 24 33 15 16 27 36 22 24 23 24 23 29 28 30 32 31 30 29 28 29 49
47 45 45 45 46 46 45 45 45 45 45 44 44 45 47 47 38 24 34 47 46 44 23 22 22 32 23 13 19 19 21 18 25 28 27 25 25 25 27 28 28 30 32 32 55
46 45 45 46 46 45 45 45 45 45 44 44 45 46 47 45 28 21 40 44 39 27 25 24 22 35 29 20 12 17 11 17 17 21 16 16 16 17 17 18 26 28 28 29 30
46 45 46 46 45 44 44 45 45 45 44 44 46 47 45 38 -13 25 40 41 34 23 23 21 18 15 16 18 20 17 18 16 18 17 15 13 13 13 13 14 17 18 20 22 24
46 46 46 45 44 44 44 45 45 45 44 45 46 46 34 -0 9 23 36 31 26 23 22 21 19 19 13 17 17 14 14 17 17 17 15 13 10 9 6 9 11 10 15 19 20
47 47 46 45 44 44 44 44 44 44 44 46 47 45 23 -10 17 26 34 27 25 23 23 23 22 21 18 18 16 17 17 16 16 15 14 12 10 9 4 6 8 11 11 14 19
47 46 45 44 44 44 44 44 44 44 46 46 47 42 23 8 24 33 35 28 28 24 22 24 23 24 22 20 20 19 15 15 11 11 10 9 3 3 7 12 13 13 14 14 16
47 46 45 44 44 44 43 43 44 46 46 46 47 39 13 27 32 33 34 26 26 25 23 24 24 24 22 21 20 17 16 7 6 9 8 7 -0 5 9 12 12 13 16 14 14
47 46 45 44 44 43 43 44 47 48 47 47 38 34 15 27 24 27 32 22 22 24 25 26 25 24 22 20 15 15 3 9 9 10 10 9 5 8 10 14 17 19 18 17 17
47 45 44 44 43 43 44 46 47 46 45 43 39 22 19 17 23 23 24 26 22 24 26 25 24 22 21 17 1 5 8 9 10 11 13 13 14 16 18 19 20 20 21 19 18
46 45 43 43 42 42 41 42 27 29 40 19 21 19 19 23 24 21 23 24 25 26 23 26 22 17 16 19 17 17 15 13 14 16 17 18 18 19 21 21 21 21 21 20 20
46 44 43 42 41 43 41 24 18 18 6 26 26 23 26 27 16 18 25 23 25 23 25 22 20 22 23 21 20 19 18 17 18 20 22 21 20 21 22 22 22 23 24 24 22
45 44 42 41 42 42 33 29 32 29 7 20 26 23 23 24 18 16 24 26 25 24 23 22 21 23 22 21 21 20 20 20 20 22 25 22 18 12 14 16 16 17 22 23 22
44 43 42 41 38 35 32 35 34 33 10 19 21 23 25 24 16 20 26 27 25 23 24 24 24 22 21 20 20 20 21 21 21 25 21 24 18 14 11 14 16 15 17 19 19
43 41 41 41 36 32 33 36 37 32 -11 21 20 24 22 16 16 17 27 27 25 24 25 19 24 24 24 24 23 22 23 24 25 26 26 18 18 11 15 16 18 20 26 38 38
42 41 42 40 38 37 38 37 35 12 -11 11 10 14 15 18 18 22 25 28 28 26 26 25 26 25 25 25 26 25 26 28 27 27 17 17 16 13 19 32 34 38 39 39 39
41 41 41 40 36 39 39 35 12 0 10 4 12 16 16 16 17 23 23 20 19 13 14 20 22 27 26 25 28 30 26 18 13 15 7 14 16 16 34 35 34 35 35 37 37
43 43 41 39 39 39 37 28 0 11 8 10 15 16 15 18 19 19 24 19 23 23 20 13 -0 24 29 24 24 24 28 21 15 12 14 18 16 26 31 35 33 36 33 36 35
42 38 37 37 40 38 31 13 2 10 10 13 16 13 15 18 19 18 21 21 23 21 12 15 11 22 18 28 30 32 28 29 25 21 19 18 26 32 27 32 32 32 32 32 34
34 33 32 36 39 35 28 16 10 13 15 15 11 15 13 16 16 16 19 24 22 22 22 19 17 18 24 31 33 32 33 26 26 17 15 18 24 21 26 27 30 30 30 31 33
37 33 38 38 38 31 22 16 13 15 16 15 14 16 17 18 19 17 20 23 24 21 23 21 22 19 23 26 22 28 24 28 29 27 21 19 21 28 27 28 28 29 30 30 31
37 30 38 40 31 30 23 20 15 15 19 17 18 20 20 18 17 17 19 21 25 23 18 23 23 20 17 21 27 25 26 29 25 23 26 25 20 31 30 30 30 29 30 31 31
34 34 37 37 26 26 28 21 17 16 16 16 22 20 20 17 15 17 19 23 24 22 20 25 24 19 9 23 24 26 26 30 32 31 27 23 22 31 30 29 30 29 30 30 30
31 28 31 33 32 28 26 18 17 19 18 21 19 17 16 14 16 16 14 20 24 23 25 29 26 21 15 17 27 25 24 28 27 27 27 23 22 25 26 27 28 28 29 29 29
30 24 28 27 29 22 20 19 17 14 17 18 16 15 14 13 14 16 20 21 23 26 25 23 21 24 23 24 28 28 26 26 24 28 23 22 22 25 26 26 27 28 27 27 26
30 26 28 27 27 19 19 18 17 13 15 16 16 17 16 14 13 16 18 22 20 23 23 25 22 24 22 27 30 26 26 24 26 26 28 27 23 29 29 26 25 26 26 25 25
34 31 25 24 19 17 17 16 16 18 24 19 18 19 18 19 21 22 22 24 24 22 24 24 24 24 19 24 29 22 25 27 26 26 27 21 26 29 25 24 25 24 24 24 24

GFSSW_sfc_30mbdewp_132.txt.gz
Dewpoint
51 49 47 46 46 47 46 46 46 46 46 45 45 46 47 48 43 30 23 35 41 45 44 18 16 21 12 12 22 27 15 12 13 19 19 22 25 24 25 28 28 30 30 30 31
51 48 46 45 46 46 46 45 45 46 45 45 45 46 47 47 31 20 36 47 46 37 17 13 10 17 6 6 11 14 3 -0 11 16 19 22 19 16 14 12 13 16 22 31 32
50 48 45 45 46 46 45 45 45 45 45 44 46 47 48 44 23 19 40 43 41 30 21 19 16 17 10 12 6 5 1 1 12 18 18 14 10 8 6 5 6 9 20 23 19
50 47 46 46 46 45 44 45 45 45 45 45 46 48 46 35 -3 23 40 40 34 23 19 16 13 7 4 6 18 11 9 10 7 14 13 9 6 4 2 0 1 5 10 12 9
49 48 46 46 45 44 44 45 45 45 44 45 47 47 36 8 15 25 35 28 26 23 20 17 14 12 4 9 11 8 6 9 10 10 9 7 4 2 2 3 5 6 6 7 9
49 48 47 46 45 44 44 44 45 44 44 46 47 46 27 -4 18 26 31 24 22 21 21 21 20 20 14 12 12 14 13 11 10 9 9 8 5 5 2 2 4 6 8 10 12
49 48 47 46 44 44 44 44 44 44 45 47 47 39 24 6 22 30 32 25 25 23 22 23 24 21 20 16 20 17 13 8 6 7 2 5 -1 -1 2 3 6 5 6 8 9
49 49 48 46 44 44 44 44 44 45 46 47 47 36 15 25 29 27 28 23 24 24 24 25 25 24 22 22 18 14 10 2 4 4 5 6 -2 -2 6 6 6 7 10 16 17
49 49 47 46 45 44 43 44 47 48 48 47 38 33 14 27 22 24 27 20 22 25 27 25 26 24 23 16 7 11 -3 -1 3 8 8 8 7 9 12 13 14 16 16 17 17
50 49 47 46 44 43 43 46 47 46 43 39 35 26 20 14 21 21 23 23 23 25 26 25 23 19 17 11 -5 1 2 2 3 6 10 13 14 15 16 16 14 15 17 18 18
50 49 47 45 44 43 45 43 31 31 34 18 18 17 16 21 23 19 22 24 25 24 19 25 16 9 11 14 14 13 11 8 8 13 19 19 18 18 18 15 15 16 17 18 18
49 48 46 44 43 43 43 28 21 23 20 29 22 21 23 24 14 18 24 20 22 18 24 21 14 18 20 20 18 15 14 12 12 18 20 19 20 19 14 11 13 17 21 20 18
49 47 44 44 43 44 38 28 31 27 7 16 20 15 20 22 14 17 22 23 21 22 22 18 17 23 21 18 18 16 15 15 16 19 22 21 14 5 13 14 29 32 34 35 34
48 46 45 44 40 37 33 32 35 35 10 14 17 20 24 20 14 20 24 23 23 21 20 22 23 21 20 19 19 15 18 19 20 22 18 22 17 14 15 28 33 31 34 35 37
47 46 44 41 37 33 32 34 38 31 3 14 19 25 21 14 16 20 26 25 20 19 23 20 20 22 26 22 23 19 23 23 24 23 24 17 16 9 28 30 29 30 32 34 37
46 44 43 42 39 36 37 36 33 16 2 12 16 16 14 15 16 20 22 26 26 21 23 19 21 22 22 23 24 24 25 24 24 23 18 14 12 16 27 30 30 32 31 32 35
44 42 39 42 38 40 40 31 13 4 11 7 9 14 12 14 17 19 18 18 15 10 8 11 18 24 26 23 24 27 24 14 13 14 8 12 13 26 26 29 32 31 32 32 33
42 42 40 42 41 42 36 26 4 3 9 8 13 13 11 15 16 18 19 17 20 16 10 4 11 20 25 22 27 26 25 19 15 10 14 17 12 28 24 25 30 32 32 31 31
41 39 38 41 43 41 29 14 8 7 9 12 13 11 12 16 20 18 21 17 20 16 9 7 7 14 15 26 30 33 26 29 26 21 19 13 22 29 24 25 28 30 29 30 30
37 36 37 43 42 36 29 13 10 10 11 12 8 8 10 11 14 23 17 21 21 20 19 17 13 15 17 29 30 28 28 22 27 19 14 12 23 21 24 26 27 28 28 30 30
36 32 39 42 40 33 25 11 12 14 14 10 13 9 9 12 13 18 20 23 22 18 20 21 20 14 18 22 21 22 24 25 24 22 18 16 21 28 27 28 28 29 29 29 29
37 29 40 41 31 29 19 15 13 15 16 16 15 15 13 14 15 13 18 18 23 19 18 24 22 17 13 19 24 25 24 27 24 22 23 24 22 32 30 30 29 29 29 30 30
34 33 40 41 26 22 25 17 14 13 13 16 19 18 18 15 14 15 19 23 23 20 22 25 22 17 16 24 24 24 23 26 28 30 27 24 23 31 30 30 30 28 29 29 29
31 28 34 36 34 23 21 15 18 21 22 22 19 18 16 15 17 16 16 20 24 22 25 27 23 22 15 21 26 25 23 25 25 26 25 23 24 26 27 27 27 28 28 29 28
33 28 27 28 30 29 20 17 17 16 21 20 17 14 13 13 13 13 14 19 23 28 25 24 20 21 21 21 28 29 24 25 25 27 24 24 23 26 27 27 28 29 28 28 27
29 27 30 27 28 24 18 15 14 17 17 17 14 14 14 12 9 14 15 19 20 22 23 26 22 22 21 25 29 26 24 21 23 26 24 28 24 31 30 27 24 24 27 25 26
34 32 26 26 25 19 16 17 16 19 21 16 16 17 15 16 20 20 21 22 22 22 25 26 24 22 15 21 29 24 26 26 26 26 26 20 26 29 26 24 23 23 23 23 23